<?xml version="1.0"?>
<gpx xmlns="http://www.topografix.com/GPX/1/1" xmlns:xsi="http://www.w3.org/2001/XMLSchema-instance" version="1.1" creator="GPX RubyGem 1.0.0 -- http://dougfales.github.io/gpx/" xsi:schemaLocation="http://www.topografix.com/GPX/1/1 http://www.topografix.com/GPX/1/1/gpx.xsd">
  <metadata>
    <name/>
    <time>2026-05-09T03:49:15+00:00</time>
    <bound minlat="90.0" minlon="180.0" maxlat="-90.0" maxlon="-180.0"/>
  </metadata>
  <trk>
    <name/>
    <trkseg>
      <trkpt lat="43.970238" lon="10.930923">
        <time>1970-01-01T00:00:00+00:00</time>
        <ele>308.0</ele>
      </trkpt>
      <trkpt lat="43.970296" lon="10.93117">
        <time>1970-01-01T00:00:00+00:00</time>
        <ele>308.0</ele>
      </trkpt>
      <trkpt lat="43.970698" lon="10.932295">
        <time>1970-01-01T00:00:00+00:00</time>
        <ele>314.0</ele>
      </trkpt>
      <trkpt lat="43.970761" lon="10.932509">
        <time>1970-01-01T00:00:00+00:00</time>
        <ele>314.0</ele>
      </trkpt>
      <trkpt lat="43.970807" lon="10.932807">
        <time>1970-01-01T00:00:00+00:00</time>
        <ele>315.0</ele>
      </trkpt>
      <trkpt lat="43.970819" lon="10.93293">
        <time>1970-01-01T00:00:00+00:00</time>
        <ele>315.0</ele>
      </trkpt>
      <trkpt lat="43.970797" lon="10.933179">
        <time>1970-01-01T00:00:00+00:00</time>
        <ele>316.0</ele>
      </trkpt>
      <trkpt lat="43.970765" lon="10.933388">
        <time>1970-01-01T00:00:00+00:00</time>
        <ele>317.0</ele>
      </trkpt>
      <trkpt lat="43.970723" lon="10.933557">
        <time>1970-01-01T00:00:00+00:00</time>
        <ele>316.0</ele>
      </trkpt>
      <trkpt lat="43.970702" lon="10.93374">
        <time>1970-01-01T00:00:00+00:00</time>
        <ele>316.0</ele>
      </trkpt>
      <trkpt lat="43.970589" lon="10.933757">
        <time>1970-01-01T00:00:00+00:00</time>
        <ele>314.0</ele>
      </trkpt>
      <trkpt lat="43.970481" lon="10.933847">
        <time>1970-01-01T00:00:00+00:00</time>
        <ele>311.0</ele>
      </trkpt>
      <trkpt lat="43.970162" lon="10.934487">
        <time>1970-01-01T00:00:00+00:00</time>
        <ele>306.0</ele>
      </trkpt>
      <trkpt lat="43.969953" lon="10.934717">
        <time>1970-01-01T00:00:00+00:00</time>
        <ele>308.0</ele>
      </trkpt>
      <trkpt lat="43.969507" lon="10.934637">
        <time>1970-01-01T00:00:00+00:00</time>
        <ele>308.0</ele>
      </trkpt>
      <trkpt lat="43.968232" lon="10.934988">
        <time>1970-01-01T00:00:00+00:00</time>
        <ele>301.0</ele>
      </trkpt>
      <trkpt lat="43.967611" lon="10.935559">
        <time>1970-01-01T00:00:00+00:00</time>
        <ele>294.0</ele>
      </trkpt>
      <trkpt lat="43.967217" lon="10.935772">
        <time>1970-01-01T00:00:00+00:00</time>
        <ele>294.0</ele>
      </trkpt>
      <trkpt lat="43.966425" lon="10.935983">
        <time>1970-01-01T00:00:00+00:00</time>
        <ele>290.0</ele>
      </trkpt>
      <trkpt lat="43.966351" lon="10.936021">
        <time>1970-01-01T00:00:00+00:00</time>
        <ele>290.0</ele>
      </trkpt>
      <trkpt lat="43.965515" lon="10.93675">
        <time>1970-01-01T00:00:00+00:00</time>
        <ele>282.0</ele>
      </trkpt>
      <trkpt lat="43.965213" lon="10.93726">
        <time>1970-01-01T00:00:00+00:00</time>
        <ele>279.0</ele>
      </trkpt>
      <trkpt lat="43.965257" lon="10.937458">
        <time>1970-01-01T00:00:00+00:00</time>
        <ele>280.0</ele>
      </trkpt>
      <trkpt lat="43.96562" lon="10.938295">
        <time>1970-01-01T00:00:00+00:00</time>
        <ele>286.0</ele>
      </trkpt>
      <trkpt lat="43.965678" lon="10.938509">
        <time>1970-01-01T00:00:00+00:00</time>
        <ele>285.0</ele>
      </trkpt>
      <trkpt lat="43.96586" lon="10.93889">
        <time>1970-01-01T00:00:00+00:00</time>
        <ele>285.0</ele>
      </trkpt>
      <trkpt lat="43.965892" lon="10.939004">
        <time>1970-01-01T00:00:00+00:00</time>
        <ele>282.0</ele>
      </trkpt>
      <trkpt lat="43.966114" lon="10.939159">
        <time>1970-01-01T00:00:00+00:00</time>
        <ele>285.0</ele>
      </trkpt>
      <trkpt lat="43.966292" lon="10.939309">
        <time>1970-01-01T00:00:00+00:00</time>
        <ele>285.0</ele>
      </trkpt>
      <trkpt lat="43.966458" lon="10.939405">
        <time>1970-01-01T00:00:00+00:00</time>
        <ele>285.0</ele>
      </trkpt>
      <trkpt lat="43.966616" lon="10.939432">
        <time>1970-01-01T00:00:00+00:00</time>
        <ele>286.0</ele>
      </trkpt>
      <trkpt lat="43.967045" lon="10.939378">
        <time>1970-01-01T00:00:00+00:00</time>
        <ele>293.0</ele>
      </trkpt>
      <trkpt lat="43.967477" lon="10.939448">
        <time>1970-01-01T00:00:00+00:00</time>
        <ele>299.0</ele>
      </trkpt>
      <trkpt lat="43.96769" lon="10.939518">
        <time>1970-01-01T00:00:00+00:00</time>
        <ele>301.0</ele>
      </trkpt>
      <trkpt lat="43.967784" lon="10.939498">
        <time>1970-01-01T00:00:00+00:00</time>
        <ele>303.0</ele>
      </trkpt>
      <trkpt lat="43.967921" lon="10.939427">
        <time>1970-01-01T00:00:00+00:00</time>
        <ele>308.0</ele>
      </trkpt>
      <trkpt lat="43.968207" lon="10.939491">
        <time>1970-01-01T00:00:00+00:00</time>
        <ele>311.0</ele>
      </trkpt>
      <trkpt lat="43.968647" lon="10.939556">
        <time>1970-01-01T00:00:00+00:00</time>
        <ele>313.0</ele>
      </trkpt>
      <trkpt lat="43.968806" lon="10.939647">
        <time>1970-01-01T00:00:00+00:00</time>
        <ele>312.0</ele>
      </trkpt>
      <trkpt lat="43.969022" lon="10.939738">
        <time>1970-01-01T00:00:00+00:00</time>
        <ele>311.0</ele>
      </trkpt>
      <trkpt lat="43.969176" lon="10.939674">
        <time>1970-01-01T00:00:00+00:00</time>
        <ele>312.0</ele>
      </trkpt>
      <trkpt lat="43.969273" lon="10.93984">
        <time>1970-01-01T00:00:00+00:00</time>
        <ele>309.0</ele>
      </trkpt>
      <trkpt lat="43.969663" lon="10.940001">
        <time>1970-01-01T00:00:00+00:00</time>
        <ele>305.0</ele>
      </trkpt>
      <trkpt lat="43.969806" lon="10.940097">
        <time>1970-01-01T00:00:00+00:00</time>
        <ele>300.0</ele>
      </trkpt>
      <trkpt lat="43.969856" lon="10.940103">
        <time>1970-01-01T00:00:00+00:00</time>
        <ele>299.0</ele>
      </trkpt>
      <trkpt lat="43.969873" lon="10.939991">
        <time>1970-01-01T00:00:00+00:00</time>
        <ele>299.0</ele>
      </trkpt>
      <trkpt lat="43.969924" lon="10.940015">
        <time>1970-01-01T00:00:00+00:00</time>
        <ele>298.0</ele>
      </trkpt>
      <trkpt lat="43.970144" lon="10.940219">
        <time>1970-01-01T00:00:00+00:00</time>
        <ele>291.0</ele>
      </trkpt>
      <trkpt lat="43.970235" lon="10.940447">
        <time>1970-01-01T00:00:00+00:00</time>
        <ele>288.0</ele>
      </trkpt>
      <trkpt lat="43.970226" lon="10.94053">
        <time>1970-01-01T00:00:00+00:00</time>
        <ele>287.0</ele>
      </trkpt>
      <trkpt lat="43.970166" lon="10.940662">
        <time>1970-01-01T00:00:00+00:00</time>
        <ele>287.0</ele>
      </trkpt>
      <trkpt lat="43.970159" lon="10.940724">
        <time>1970-01-01T00:00:00+00:00</time>
        <ele>287.0</ele>
      </trkpt>
      <trkpt lat="43.970228" lon="10.94077">
        <time>1970-01-01T00:00:00+00:00</time>
        <ele>285.0</ele>
      </trkpt>
      <trkpt lat="43.97029" lon="10.940779">
        <time>1970-01-01T00:00:00+00:00</time>
        <ele>284.0</ele>
      </trkpt>
      <trkpt lat="43.970412" lon="10.940721">
        <time>1970-01-01T00:00:00+00:00</time>
        <ele>282.0</ele>
      </trkpt>
      <trkpt lat="43.970561" lon="10.940585">
        <time>1970-01-01T00:00:00+00:00</time>
        <ele>279.0</ele>
      </trkpt>
      <trkpt lat="43.970676" lon="10.940333">
        <time>1970-01-01T00:00:00+00:00</time>
        <ele>274.0</ele>
      </trkpt>
      <trkpt lat="43.970776" lon="10.94057">
        <time>1970-01-01T00:00:00+00:00</time>
        <ele>273.0</ele>
      </trkpt>
      <trkpt lat="43.970809" lon="10.940745">
        <time>1970-01-01T00:00:00+00:00</time>
        <ele>272.0</ele>
      </trkpt>
      <trkpt lat="43.970809" lon="10.940896">
        <time>1970-01-01T00:00:00+00:00</time>
        <ele>271.0</ele>
      </trkpt>
      <trkpt lat="43.970718" lon="10.941288">
        <time>1970-01-01T00:00:00+00:00</time>
        <ele>266.0</ele>
      </trkpt>
      <trkpt lat="43.97076" lon="10.9413">
        <time>1970-01-01T00:00:00+00:00</time>
        <ele>264.0</ele>
      </trkpt>
      <trkpt lat="43.970842" lon="10.941192">
        <time>1970-01-01T00:00:00+00:00</time>
        <ele>265.0</ele>
      </trkpt>
      <trkpt lat="43.970924" lon="10.941128">
        <time>1970-01-01T00:00:00+00:00</time>
        <ele>262.0</ele>
      </trkpt>
      <trkpt lat="43.971048" lon="10.940927">
        <time>1970-01-01T00:00:00+00:00</time>
        <ele>260.0</ele>
      </trkpt>
      <trkpt lat="43.971117" lon="10.940579">
        <time>1970-01-01T00:00:00+00:00</time>
        <ele>257.0</ele>
      </trkpt>
      <trkpt lat="43.971279" lon="10.940342">
        <time>1970-01-01T00:00:00+00:00</time>
        <ele>247.0</ele>
      </trkpt>
      <trkpt lat="43.97137" lon="10.940018">
        <time>1970-01-01T00:00:00+00:00</time>
        <ele>244.0</ele>
      </trkpt>
      <trkpt lat="43.971397" lon="10.940049">
        <time>1970-01-01T00:00:00+00:00</time>
        <ele>243.0</ele>
      </trkpt>
      <trkpt lat="43.971476" lon="10.940354">
        <time>1970-01-01T00:00:00+00:00</time>
        <ele>241.0</ele>
      </trkpt>
      <trkpt lat="43.971649" lon="10.94057">
        <time>1970-01-01T00:00:00+00:00</time>
        <ele>235.0</ele>
      </trkpt>
      <trkpt lat="43.971678" lon="10.940736">
        <time>1970-01-01T00:00:00+00:00</time>
        <ele>234.0</ele>
      </trkpt>
      <trkpt lat="43.971725" lon="10.940884">
        <time>1970-01-01T00:00:00+00:00</time>
        <ele>231.0</ele>
      </trkpt>
      <trkpt lat="43.971809" lon="10.941014">
        <time>1970-01-01T00:00:00+00:00</time>
        <ele>227.0</ele>
      </trkpt>
      <trkpt lat="43.971836" lon="10.941124">
        <time>1970-01-01T00:00:00+00:00</time>
        <ele>226.0</ele>
      </trkpt>
      <trkpt lat="43.971902" lon="10.94126">
        <time>1970-01-01T00:00:00+00:00</time>
        <ele>223.0</ele>
      </trkpt>
      <trkpt lat="43.971931" lon="10.941423">
        <time>1970-01-01T00:00:00+00:00</time>
        <ele>219.0</ele>
      </trkpt>
      <trkpt lat="43.97198" lon="10.94155">
        <time>1970-01-01T00:00:00+00:00</time>
        <ele>217.0</ele>
      </trkpt>
      <trkpt lat="43.972002" lon="10.941664">
        <time>1970-01-01T00:00:00+00:00</time>
        <ele>214.0</ele>
      </trkpt>
      <trkpt lat="43.972037" lon="10.941728">
        <time>1970-01-01T00:00:00+00:00</time>
        <ele>213.0</ele>
      </trkpt>
      <trkpt lat="43.972093" lon="10.942006">
        <time>1970-01-01T00:00:00+00:00</time>
        <ele>207.0</ele>
      </trkpt>
      <trkpt lat="43.972145" lon="10.9421">
        <time>1970-01-01T00:00:00+00:00</time>
        <ele>205.0</ele>
      </trkpt>
      <trkpt lat="43.972131" lon="10.942248">
        <time>1970-01-01T00:00:00+00:00</time>
        <ele>201.0</ele>
      </trkpt>
      <trkpt lat="43.972074" lon="10.94253">
        <time>1970-01-01T00:00:00+00:00</time>
        <ele>194.0</ele>
      </trkpt>
      <trkpt lat="43.972019" lon="10.942704">
        <time>1970-01-01T00:00:00+00:00</time>
        <ele>189.0</ele>
      </trkpt>
      <trkpt lat="43.971968" lon="10.942954">
        <time>1970-01-01T00:00:00+00:00</time>
        <ele>183.0</ele>
      </trkpt>
      <trkpt lat="43.971924" lon="10.943328">
        <time>1970-01-01T00:00:00+00:00</time>
        <ele>180.0</ele>
      </trkpt>
      <trkpt lat="43.97175" lon="10.943323">
        <time>1970-01-01T00:00:00+00:00</time>
        <ele>179.0</ele>
      </trkpt>
      <trkpt lat="43.971495" lon="10.943247">
        <time>1970-01-01T00:00:00+00:00</time>
        <ele>180.0</ele>
      </trkpt>
      <trkpt lat="43.971299" lon="10.943119">
        <time>1970-01-01T00:00:00+00:00</time>
        <ele>183.0</ele>
      </trkpt>
      <trkpt lat="43.971098" lon="10.943098">
        <time>1970-01-01T00:00:00+00:00</time>
        <ele>187.0</ele>
      </trkpt>
      <trkpt lat="43.970622" lon="10.943304">
        <time>1970-01-01T00:00:00+00:00</time>
        <ele>186.0</ele>
      </trkpt>
      <trkpt lat="43.970092" lon="10.943233">
        <time>1970-01-01T00:00:00+00:00</time>
        <ele>185.0</ele>
      </trkpt>
      <trkpt lat="43.969758" lon="10.943259">
        <time>1970-01-01T00:00:00+00:00</time>
        <ele>189.0</ele>
      </trkpt>
      <trkpt lat="43.969646" lon="10.943308">
        <time>1970-01-01T00:00:00+00:00</time>
        <ele>191.0</ele>
      </trkpt>
      <trkpt lat="43.969549" lon="10.94339">
        <time>1970-01-01T00:00:00+00:00</time>
        <ele>191.0</ele>
      </trkpt>
      <trkpt lat="43.969243" lon="10.943749">
        <time>1970-01-01T00:00:00+00:00</time>
        <ele>187.0</ele>
      </trkpt>
      <trkpt lat="43.969311" lon="10.943811">
        <time>1970-01-01T00:00:00+00:00</time>
        <ele>181.0</ele>
      </trkpt>
      <trkpt lat="43.969441" lon="10.943921">
        <time>1970-01-01T00:00:00+00:00</time>
        <ele>173.0</ele>
      </trkpt>
      <trkpt lat="43.970142" lon="10.944501">
        <time>1970-01-01T00:00:00+00:00</time>
        <ele>169.0</ele>
      </trkpt>
      <trkpt lat="43.970555" lon="10.944697">
        <time>1970-01-01T00:00:00+00:00</time>
        <ele>173.0</ele>
      </trkpt>
      <trkpt lat="43.97069" lon="10.944809">
        <time>1970-01-01T00:00:00+00:00</time>
        <ele>176.0</ele>
      </trkpt>
      <trkpt lat="43.970808" lon="10.944806">
        <time>1970-01-01T00:00:00+00:00</time>
        <ele>177.0</ele>
      </trkpt>
      <trkpt lat="43.971416" lon="10.944468">
        <time>1970-01-01T00:00:00+00:00</time>
        <ele>180.0</ele>
      </trkpt>
      <trkpt lat="43.971475" lon="10.944463">
        <time>1970-01-01T00:00:00+00:00</time>
        <ele>180.0</ele>
      </trkpt>
      <trkpt lat="43.971564" lon="10.944474">
        <time>1970-01-01T00:00:00+00:00</time>
        <ele>181.0</ele>
      </trkpt>
      <trkpt lat="43.972223" lon="10.944686">
        <time>1970-01-01T00:00:00+00:00</time>
        <ele>189.0</ele>
      </trkpt>
      <trkpt lat="43.972402" lon="10.944763">
        <time>1970-01-01T00:00:00+00:00</time>
        <ele>191.0</ele>
      </trkpt>
      <trkpt lat="43.97262" lon="10.944927">
        <time>1970-01-01T00:00:00+00:00</time>
        <ele>193.0</ele>
      </trkpt>
      <trkpt lat="43.973016" lon="10.945064">
        <time>1970-01-01T00:00:00+00:00</time>
        <ele>194.0</ele>
      </trkpt>
      <trkpt lat="43.973182" lon="10.945174">
        <time>1970-01-01T00:00:00+00:00</time>
        <ele>198.0</ele>
      </trkpt>
      <trkpt lat="43.973217" lon="10.94523">
        <time>1970-01-01T00:00:00+00:00</time>
        <ele>199.0</ele>
      </trkpt>
      <trkpt lat="43.973238" lon="10.945295">
        <time>1970-01-01T00:00:00+00:00</time>
        <ele>201.0</ele>
      </trkpt>
      <trkpt lat="43.973238" lon="10.945576">
        <time>1970-01-01T00:00:00+00:00</time>
        <ele>209.0</ele>
      </trkpt>
      <trkpt lat="43.973253" lon="10.945667">
        <time>1970-01-01T00:00:00+00:00</time>
        <ele>211.0</ele>
      </trkpt>
      <trkpt lat="43.973306" lon="10.945809">
        <time>1970-01-01T00:00:00+00:00</time>
        <ele>214.0</ele>
      </trkpt>
      <trkpt lat="43.973404" lon="10.945976">
        <time>1970-01-01T00:00:00+00:00</time>
        <ele>218.0</ele>
      </trkpt>
      <trkpt lat="43.973435" lon="10.945992">
        <time>1970-01-01T00:00:00+00:00</time>
        <ele>218.0</ele>
      </trkpt>
      <trkpt lat="43.973499" lon="10.945973">
        <time>1970-01-01T00:00:00+00:00</time>
        <ele>218.0</ele>
      </trkpt>
      <trkpt lat="43.97358" lon="10.94578">
        <time>1970-01-01T00:00:00+00:00</time>
        <ele>213.0</ele>
      </trkpt>
      <trkpt lat="43.973647" lon="10.945673">
        <time>1970-01-01T00:00:00+00:00</time>
        <ele>210.0</ele>
      </trkpt>
      <trkpt lat="43.973721" lon="10.945673">
        <time>1970-01-01T00:00:00+00:00</time>
        <ele>209.0</ele>
      </trkpt>
      <trkpt lat="43.973748" lon="10.945697">
        <time>1970-01-01T00:00:00+00:00</time>
        <ele>209.0</ele>
      </trkpt>
      <trkpt lat="43.973765" lon="10.945783">
        <time>1970-01-01T00:00:00+00:00</time>
        <ele>211.0</ele>
      </trkpt>
      <trkpt lat="43.973715" lon="10.946035">
        <time>1970-01-01T00:00:00+00:00</time>
        <ele>219.0</ele>
      </trkpt>
      <trkpt lat="43.973676" lon="10.946458">
        <time>1970-01-01T00:00:00+00:00</time>
        <ele>229.0</ele>
      </trkpt>
      <trkpt lat="43.973711" lon="10.946622">
        <time>1970-01-01T00:00:00+00:00</time>
        <ele>233.0</ele>
      </trkpt>
      <trkpt lat="43.973765" lon="10.946716">
        <time>1970-01-01T00:00:00+00:00</time>
        <ele>235.0</ele>
      </trkpt>
      <trkpt lat="43.973802" lon="10.946748">
        <time>1970-01-01T00:00:00+00:00</time>
        <ele>236.0</ele>
      </trkpt>
      <trkpt lat="43.97385" lon="10.946759">
        <time>1970-01-01T00:00:00+00:00</time>
        <ele>236.0</ele>
      </trkpt>
      <trkpt lat="43.973908" lon="10.946719">
        <time>1970-01-01T00:00:00+00:00</time>
        <ele>236.0</ele>
      </trkpt>
      <trkpt lat="43.973918" lon="10.94667">
        <time>1970-01-01T00:00:00+00:00</time>
        <ele>236.0</ele>
      </trkpt>
      <trkpt lat="43.973927" lon="10.946348">
        <time>1970-01-01T00:00:00+00:00</time>
        <ele>232.0</ele>
      </trkpt>
      <trkpt lat="43.97395" lon="10.946308">
        <time>1970-01-01T00:00:00+00:00</time>
        <ele>232.0</ele>
      </trkpt>
      <trkpt lat="43.974004" lon="10.946306">
        <time>1970-01-01T00:00:00+00:00</time>
        <ele>233.0</ele>
      </trkpt>
      <trkpt lat="43.974028" lon="10.946324">
        <time>1970-01-01T00:00:00+00:00</time>
        <ele>234.0</ele>
      </trkpt>
      <trkpt lat="43.974043" lon="10.94637">
        <time>1970-01-01T00:00:00+00:00</time>
        <ele>235.0</ele>
      </trkpt>
      <trkpt lat="43.97407" lon="10.946759">
        <time>1970-01-01T00:00:00+00:00</time>
        <ele>240.0</ele>
      </trkpt>
      <trkpt lat="43.974058" lon="10.946917">
        <time>1970-01-01T00:00:00+00:00</time>
        <ele>241.0</ele>
      </trkpt>
      <trkpt lat="43.974018" lon="10.94699">
        <time>1970-01-01T00:00:00+00:00</time>
        <ele>242.0</ele>
      </trkpt>
      <trkpt lat="43.973863" lon="10.947041">
        <time>1970-01-01T00:00:00+00:00</time>
        <ele>241.0</ele>
      </trkpt>
      <trkpt lat="43.97382" lon="10.947107">
        <time>1970-01-01T00:00:00+00:00</time>
        <ele>241.0</ele>
      </trkpt>
      <trkpt lat="43.97378" lon="10.947177">
        <time>1970-01-01T00:00:00+00:00</time>
        <ele>242.0</ele>
      </trkpt>
      <trkpt lat="43.973711" lon="10.947387">
        <time>1970-01-01T00:00:00+00:00</time>
        <ele>245.0</ele>
      </trkpt>
      <trkpt lat="43.973589" lon="10.947542">
        <time>1970-01-01T00:00:00+00:00</time>
        <ele>245.0</ele>
      </trkpt>
      <trkpt lat="43.973589" lon="10.947631">
        <time>1970-01-01T00:00:00+00:00</time>
        <ele>246.0</ele>
      </trkpt>
      <trkpt lat="43.973541" lon="10.947757">
        <time>1970-01-01T00:00:00+00:00</time>
        <ele>246.0</ele>
      </trkpt>
      <trkpt lat="43.973547" lon="10.94788">
        <time>1970-01-01T00:00:00+00:00</time>
        <ele>247.0</ele>
      </trkpt>
      <trkpt lat="43.973485" lon="10.94806">
        <time>1970-01-01T00:00:00+00:00</time>
        <ele>247.0</ele>
      </trkpt>
      <trkpt lat="43.973483" lon="10.948183">
        <time>1970-01-01T00:00:00+00:00</time>
        <ele>248.0</ele>
      </trkpt>
      <trkpt lat="43.973528" lon="10.948489">
        <time>1970-01-01T00:00:00+00:00</time>
        <ele>249.0</ele>
      </trkpt>
      <trkpt lat="43.973541" lon="10.948948">
        <time>1970-01-01T00:00:00+00:00</time>
        <ele>247.0</ele>
      </trkpt>
      <trkpt lat="43.973728" lon="10.949573">
        <time>1970-01-01T00:00:00+00:00</time>
        <ele>249.0</ele>
      </trkpt>
      <trkpt lat="43.973744" lon="10.949688">
        <time>1970-01-01T00:00:00+00:00</time>
        <ele>249.0</ele>
      </trkpt>
      <trkpt lat="43.973728" lon="10.950072">
        <time>1970-01-01T00:00:00+00:00</time>
        <ele>249.0</ele>
      </trkpt>
      <trkpt lat="43.973715" lon="10.950114">
        <time>1970-01-01T00:00:00+00:00</time>
        <ele>249.0</ele>
      </trkpt>
      <trkpt lat="43.973669" lon="10.950133">
        <time>1970-01-01T00:00:00+00:00</time>
        <ele>249.0</ele>
      </trkpt>
      <trkpt lat="43.973572" lon="10.950093">
        <time>1970-01-01T00:00:00+00:00</time>
        <ele>250.0</ele>
      </trkpt>
      <trkpt lat="43.973325" lon="10.94986">
        <time>1970-01-01T00:00:00+00:00</time>
        <ele>247.0</ele>
      </trkpt>
      <trkpt lat="43.973244" lon="10.949809">
        <time>1970-01-01T00:00:00+00:00</time>
        <ele>246.0</ele>
      </trkpt>
      <trkpt lat="43.97314" lon="10.949803">
        <time>1970-01-01T00:00:00+00:00</time>
        <ele>247.0</ele>
      </trkpt>
      <trkpt lat="43.973018" lon="10.94975">
        <time>1970-01-01T00:00:00+00:00</time>
        <ele>247.0</ele>
      </trkpt>
      <trkpt lat="43.972784" lon="10.949699">
        <time>1970-01-01T00:00:00+00:00</time>
        <ele>247.0</ele>
      </trkpt>
      <trkpt lat="43.972638" lon="10.949723">
        <time>1970-01-01T00:00:00+00:00</time>
        <ele>248.0</ele>
      </trkpt>
      <trkpt lat="43.97253" lon="10.949717">
        <time>1970-01-01T00:00:00+00:00</time>
        <ele>248.0</ele>
      </trkpt>
      <trkpt lat="43.972495" lon="10.949736">
        <time>1970-01-01T00:00:00+00:00</time>
        <ele>248.0</ele>
      </trkpt>
      <trkpt lat="43.972043" lon="10.950656">
        <time>1970-01-01T00:00:00+00:00</time>
        <ele>264.0</ele>
      </trkpt>
      <trkpt lat="43.971995" lon="10.950793">
        <time>1970-01-01T00:00:00+00:00</time>
        <ele>265.0</ele>
      </trkpt>
      <trkpt lat="43.97197" lon="10.950924">
        <time>1970-01-01T00:00:00+00:00</time>
        <ele>265.0</ele>
      </trkpt>
      <trkpt lat="43.971935" lon="10.951011">
        <time>1970-01-01T00:00:00+00:00</time>
        <ele>266.0</ele>
      </trkpt>
      <trkpt lat="43.97191" lon="10.951241">
        <time>1970-01-01T00:00:00+00:00</time>
        <ele>267.0</ele>
      </trkpt>
      <trkpt lat="43.971927" lon="10.951324">
        <time>1970-01-01T00:00:00+00:00</time>
        <ele>268.0</ele>
      </trkpt>
      <trkpt lat="43.972003" lon="10.951482">
        <time>1970-01-01T00:00:00+00:00</time>
        <ele>269.0</ele>
      </trkpt>
      <trkpt lat="43.97202" lon="10.951573">
        <time>1970-01-01T00:00:00+00:00</time>
        <ele>271.0</ele>
      </trkpt>
      <trkpt lat="43.972051" lon="10.951769">
        <time>1970-01-01T00:00:00+00:00</time>
        <ele>273.0</ele>
      </trkpt>
      <trkpt lat="43.972063" lon="10.952107">
        <time>1970-01-01T00:00:00+00:00</time>
        <ele>277.0</ele>
      </trkpt>
      <trkpt lat="43.972045" lon="10.952518">
        <time>1970-01-01T00:00:00+00:00</time>
        <ele>282.0</ele>
      </trkpt>
      <trkpt lat="43.972047" lon="10.952652">
        <time>1970-01-01T00:00:00+00:00</time>
        <ele>284.0</ele>
      </trkpt>
      <trkpt lat="43.97207" lon="10.952778">
        <time>1970-01-01T00:00:00+00:00</time>
        <ele>285.0</ele>
      </trkpt>
      <trkpt lat="43.972136" lon="10.952931">
        <time>1970-01-01T00:00:00+00:00</time>
        <ele>288.0</ele>
      </trkpt>
      <trkpt lat="43.97224" lon="10.953591">
        <time>1970-01-01T00:00:00+00:00</time>
        <ele>298.0</ele>
      </trkpt>
      <trkpt lat="43.97229" lon="10.953805">
        <time>1970-01-01T00:00:00+00:00</time>
        <ele>303.0</ele>
      </trkpt>
      <trkpt lat="43.972394" lon="10.954146">
        <time>1970-01-01T00:00:00+00:00</time>
        <ele>309.0</ele>
      </trkpt>
      <trkpt lat="43.972483" lon="10.954334">
        <time>1970-01-01T00:00:00+00:00</time>
        <ele>312.0</ele>
      </trkpt>
      <trkpt lat="43.97247" lon="10.95439">
        <time>1970-01-01T00:00:00+00:00</time>
        <ele>314.0</ele>
      </trkpt>
      <trkpt lat="43.972427" lon="10.954393">
        <time>1970-01-01T00:00:00+00:00</time>
        <ele>314.0</ele>
      </trkpt>
      <trkpt lat="43.972146" lon="10.954092">
        <time>1970-01-01T00:00:00+00:00</time>
        <ele>309.0</ele>
      </trkpt>
      <trkpt lat="43.97208" lon="10.954081">
        <time>1970-01-01T00:00:00+00:00</time>
        <ele>309.0</ele>
      </trkpt>
      <trkpt lat="43.972057" lon="10.954151">
        <time>1970-01-01T00:00:00+00:00</time>
        <ele>310.0</ele>
      </trkpt>
      <trkpt lat="43.972074" lon="10.95421">
        <time>1970-01-01T00:00:00+00:00</time>
        <ele>311.0</ele>
      </trkpt>
      <trkpt lat="43.972203" lon="10.954371">
        <time>1970-01-01T00:00:00+00:00</time>
        <ele>316.0</ele>
      </trkpt>
      <trkpt lat="43.972562" lon="10.955093">
        <time>1970-01-01T00:00:00+00:00</time>
        <ele>328.0</ele>
      </trkpt>
      <trkpt lat="43.972547" lon="10.955176">
        <time>1970-01-01T00:00:00+00:00</time>
        <ele>332.0</ele>
      </trkpt>
      <trkpt lat="43.972493" lon="10.955178">
        <time>1970-01-01T00:00:00+00:00</time>
        <ele>333.0</ele>
      </trkpt>
      <trkpt lat="43.972333" lon="10.95506">
        <time>1970-01-01T00:00:00+00:00</time>
        <ele>331.0</ele>
      </trkpt>
      <trkpt lat="43.972161" lon="10.954985">
        <time>1970-01-01T00:00:00+00:00</time>
        <ele>328.0</ele>
      </trkpt>
      <trkpt lat="43.972055" lon="10.95498">
        <time>1970-01-01T00:00:00+00:00</time>
        <ele>328.0</ele>
      </trkpt>
      <trkpt lat="43.971922" lon="10.955001">
        <time>1970-01-01T00:00:00+00:00</time>
        <ele>327.0</ele>
      </trkpt>
      <trkpt lat="43.971867" lon="10.955039">
        <time>1970-01-01T00:00:00+00:00</time>
        <ele>327.0</ele>
      </trkpt>
      <trkpt lat="43.971814" lon="10.955112">
        <time>1970-01-01T00:00:00+00:00</time>
        <ele>328.0</ele>
      </trkpt>
      <trkpt lat="43.971664" lon="10.955169">
        <time>1970-01-01T00:00:00+00:00</time>
        <ele>327.0</ele>
      </trkpt>
      <trkpt lat="43.971311" lon="10.955351">
        <time>1970-01-01T00:00:00+00:00</time>
        <ele>329.0</ele>
      </trkpt>
      <trkpt lat="43.971202" lon="10.955371">
        <time>1970-01-01T00:00:00+00:00</time>
        <ele>329.0</ele>
      </trkpt>
      <trkpt lat="43.9699" lon="10.955144">
        <time>1970-01-01T00:00:00+00:00</time>
        <ele>318.0</ele>
      </trkpt>
      <trkpt lat="43.969546" lon="10.955101">
        <time>1970-01-01T00:00:00+00:00</time>
        <ele>321.0</ele>
      </trkpt>
      <trkpt lat="43.969461" lon="10.955102">
        <time>1970-01-01T00:00:00+00:00</time>
        <ele>322.0</ele>
      </trkpt>
      <trkpt lat="43.969387" lon="10.955157">
        <time>1970-01-01T00:00:00+00:00</time>
        <ele>323.0</ele>
      </trkpt>
      <trkpt lat="43.969339" lon="10.95523">
        <time>1970-01-01T00:00:00+00:00</time>
        <ele>323.0</ele>
      </trkpt>
      <trkpt lat="43.969352" lon="10.955345">
        <time>1970-01-01T00:00:00+00:00</time>
        <ele>322.0</ele>
      </trkpt>
      <trkpt lat="43.969398" lon="10.955536">
        <time>1970-01-01T00:00:00+00:00</time>
        <ele>323.0</ele>
      </trkpt>
      <trkpt lat="43.969501" lon="10.955306">
        <time>1970-01-01T00:00:00+00:00</time>
        <ele>323.0</ele>
      </trkpt>
      <trkpt lat="43.969564" lon="10.955252">
        <time>1970-01-01T00:00:00+00:00</time>
        <ele>322.0</ele>
      </trkpt>
      <trkpt lat="43.969598" lon="10.955233">
        <time>1970-01-01T00:00:00+00:00</time>
        <ele>322.0</ele>
      </trkpt>
      <trkpt lat="43.969651" lon="10.955245">
        <time>1970-01-01T00:00:00+00:00</time>
        <ele>322.0</ele>
      </trkpt>
      <trkpt lat="43.969724" lon="10.955319">
        <time>1970-01-01T00:00:00+00:00</time>
        <ele>323.0</ele>
      </trkpt>
      <trkpt lat="43.96975" lon="10.955389">
        <time>1970-01-01T00:00:00+00:00</time>
        <ele>324.0</ele>
      </trkpt>
      <trkpt lat="43.969746" lon="10.955542">
        <time>1970-01-01T00:00:00+00:00</time>
        <ele>327.0</ele>
      </trkpt>
      <trkpt lat="43.969633" lon="10.956045">
        <time>1970-01-01T00:00:00+00:00</time>
        <ele>330.0</ele>
      </trkpt>
      <trkpt lat="43.969683" lon="10.956055">
        <time>1970-01-01T00:00:00+00:00</time>
        <ele>330.0</ele>
      </trkpt>
      <trkpt lat="43.969715" lon="10.956041">
        <time>1970-01-01T00:00:00+00:00</time>
        <ele>331.0</ele>
      </trkpt>
      <trkpt lat="43.969816" lon="10.955956">
        <time>1970-01-01T00:00:00+00:00</time>
        <ele>332.0</ele>
      </trkpt>
      <trkpt lat="43.969858" lon="10.955989">
        <time>1970-01-01T00:00:00+00:00</time>
        <ele>334.0</ele>
      </trkpt>
      <trkpt lat="43.969858" lon="10.956045">
        <time>1970-01-01T00:00:00+00:00</time>
        <ele>335.0</ele>
      </trkpt>
      <trkpt lat="43.9698" lon="10.956224">
        <time>1970-01-01T00:00:00+00:00</time>
        <ele>335.0</ele>
      </trkpt>
      <trkpt lat="43.969763" lon="10.956475">
        <time>1970-01-01T00:00:00+00:00</time>
        <ele>336.0</ele>
      </trkpt>
      <trkpt lat="43.969807" lon="10.956766">
        <time>1970-01-01T00:00:00+00:00</time>
        <ele>339.0</ele>
      </trkpt>
      <trkpt lat="43.969885" lon="10.956918">
        <time>1970-01-01T00:00:00+00:00</time>
        <ele>343.0</ele>
      </trkpt>
      <trkpt lat="43.96995" lon="10.95694">
        <time>1970-01-01T00:00:00+00:00</time>
        <ele>345.0</ele>
      </trkpt>
      <trkpt lat="43.969988" lon="10.956922">
        <time>1970-01-01T00:00:00+00:00</time>
        <ele>346.0</ele>
      </trkpt>
      <trkpt lat="43.970097" lon="10.956645">
        <time>1970-01-01T00:00:00+00:00</time>
        <ele>347.0</ele>
      </trkpt>
      <trkpt lat="43.970145" lon="10.956572">
        <time>1970-01-01T00:00:00+00:00</time>
        <ele>347.0</ele>
      </trkpt>
      <trkpt lat="43.970193" lon="10.956563">
        <time>1970-01-01T00:00:00+00:00</time>
        <ele>348.0</ele>
      </trkpt>
      <trkpt lat="43.970224" lon="10.956584">
        <time>1970-01-01T00:00:00+00:00</time>
        <ele>349.0</ele>
      </trkpt>
      <trkpt lat="43.97027" lon="10.95668">
        <time>1970-01-01T00:00:00+00:00</time>
        <ele>350.0</ele>
      </trkpt>
      <trkpt lat="43.970436" lon="10.95738">
        <time>1970-01-01T00:00:00+00:00</time>
        <ele>359.0</ele>
      </trkpt>
      <trkpt lat="43.97052" lon="10.957413">
        <time>1970-01-01T00:00:00+00:00</time>
        <ele>361.0</ele>
      </trkpt>
      <trkpt lat="43.970604" lon="10.957415">
        <time>1970-01-01T00:00:00+00:00</time>
        <ele>363.0</ele>
      </trkpt>
      <trkpt lat="43.970622" lon="10.957435">
        <time>1970-01-01T00:00:00+00:00</time>
        <ele>364.0</ele>
      </trkpt>
      <trkpt lat="43.9709" lon="10.95767">
        <time>1970-01-01T00:00:00+00:00</time>
        <ele>367.0</ele>
      </trkpt>
      <trkpt lat="43.971259" lon="10.957791">
        <time>1970-01-01T00:00:00+00:00</time>
        <ele>374.0</ele>
      </trkpt>
      <trkpt lat="43.971488" lon="10.957985">
        <time>1970-01-01T00:00:00+00:00</time>
        <ele>381.0</ele>
      </trkpt>
      <trkpt lat="43.972132" lon="10.958347">
        <time>1970-01-01T00:00:00+00:00</time>
        <ele>391.0</ele>
      </trkpt>
      <trkpt lat="43.972268" lon="10.958378">
        <time>1970-01-01T00:00:00+00:00</time>
        <ele>395.0</ele>
      </trkpt>
      <trkpt lat="43.972465" lon="10.958506">
        <time>1970-01-01T00:00:00+00:00</time>
        <ele>400.0</ele>
      </trkpt>
      <trkpt lat="43.973029" lon="10.958708">
        <time>1970-01-01T00:00:00+00:00</time>
        <ele>413.0</ele>
      </trkpt>
      <trkpt lat="43.97327" lon="10.958686">
        <time>1970-01-01T00:00:00+00:00</time>
        <ele>418.0</ele>
      </trkpt>
      <trkpt lat="43.973565" lon="10.958813">
        <time>1970-01-01T00:00:00+00:00</time>
        <ele>425.0</ele>
      </trkpt>
      <trkpt lat="43.973671" lon="10.958911">
        <time>1970-01-01T00:00:00+00:00</time>
        <ele>427.0</ele>
      </trkpt>
      <trkpt lat="43.973937" lon="10.959269">
        <time>1970-01-01T00:00:00+00:00</time>
        <ele>435.0</ele>
      </trkpt>
      <trkpt lat="43.974116" lon="10.959466">
        <time>1970-01-01T00:00:00+00:00</time>
        <ele>440.0</ele>
      </trkpt>
      <trkpt lat="43.97451" lon="10.9598">
        <time>1970-01-01T00:00:00+00:00</time>
        <ele>447.0</ele>
      </trkpt>
      <trkpt lat="43.974659" lon="10.959967">
        <time>1970-01-01T00:00:00+00:00</time>
        <ele>452.0</ele>
      </trkpt>
      <trkpt lat="43.974829" lon="10.960124">
        <time>1970-01-01T00:00:00+00:00</time>
        <ele>457.0</ele>
      </trkpt>
      <trkpt lat="43.975319" lon="10.960242">
        <time>1970-01-01T00:00:00+00:00</time>
        <ele>467.0</ele>
      </trkpt>
      <trkpt lat="43.97541" lon="10.960252">
        <time>1970-01-01T00:00:00+00:00</time>
        <ele>470.0</ele>
      </trkpt>
      <trkpt lat="43.975479" lon="10.960228">
        <time>1970-01-01T00:00:00+00:00</time>
        <ele>471.0</ele>
      </trkpt>
      <trkpt lat="43.975542" lon="10.960247">
        <time>1970-01-01T00:00:00+00:00</time>
        <ele>473.0</ele>
      </trkpt>
      <trkpt lat="43.975594" lon="10.960223">
        <time>1970-01-01T00:00:00+00:00</time>
        <ele>474.0</ele>
      </trkpt>
      <trkpt lat="43.975574" lon="10.960254">
        <time>1970-01-01T00:00:00+00:00</time>
        <ele>474.0</ele>
      </trkpt>
      <trkpt lat="43.97561" lon="10.960346">
        <time>1970-01-01T00:00:00+00:00</time>
        <ele>477.0</ele>
      </trkpt>
      <trkpt lat="43.975538" lon="10.960495">
        <time>1970-01-01T00:00:00+00:00</time>
        <ele>477.0</ele>
      </trkpt>
      <trkpt lat="43.975569" lon="10.960646">
        <time>1970-01-01T00:00:00+00:00</time>
        <ele>481.0</ele>
      </trkpt>
      <trkpt lat="43.975676" lon="10.96073">
        <time>1970-01-01T00:00:00+00:00</time>
        <ele>485.0</ele>
      </trkpt>
      <trkpt lat="43.975803" lon="10.960742">
        <time>1970-01-01T00:00:00+00:00</time>
        <ele>487.0</ele>
      </trkpt>
      <trkpt lat="43.975858" lon="10.960803">
        <time>1970-01-01T00:00:00+00:00</time>
        <ele>489.0</ele>
      </trkpt>
      <trkpt lat="43.975899" lon="10.960766">
        <time>1970-01-01T00:00:00+00:00</time>
        <ele>489.0</ele>
      </trkpt>
      <trkpt lat="43.975891" lon="10.960837">
        <time>1970-01-01T00:00:00+00:00</time>
        <ele>490.0</ele>
      </trkpt>
      <trkpt lat="43.975997" lon="10.961142">
        <time>1970-01-01T00:00:00+00:00</time>
        <ele>494.0</ele>
      </trkpt>
      <trkpt lat="43.976023" lon="10.961125">
        <time>1970-01-01T00:00:00+00:00</time>
        <ele>495.0</ele>
      </trkpt>
      <trkpt lat="43.976113" lon="10.961201">
        <time>1970-01-01T00:00:00+00:00</time>
        <ele>497.0</ele>
      </trkpt>
      <trkpt lat="43.976184" lon="10.961216">
        <time>1970-01-01T00:00:00+00:00</time>
        <ele>499.0</ele>
      </trkpt>
      <trkpt lat="43.976225" lon="10.961192">
        <time>1970-01-01T00:00:00+00:00</time>
        <ele>500.0</ele>
      </trkpt>
      <trkpt lat="43.976329" lon="10.961215">
        <time>1970-01-01T00:00:00+00:00</time>
        <ele>501.0</ele>
      </trkpt>
      <trkpt lat="43.976837" lon="10.961494">
        <time>1970-01-01T00:00:00+00:00</time>
        <ele>512.0</ele>
      </trkpt>
      <trkpt lat="43.977081" lon="10.961579">
        <time>1970-01-01T00:00:00+00:00</time>
        <ele>517.0</ele>
      </trkpt>
      <trkpt lat="43.97745" lon="10.961666">
        <time>1970-01-01T00:00:00+00:00</time>
        <ele>525.0</ele>
      </trkpt>
      <trkpt lat="43.977631" lon="10.961777">
        <time>1970-01-01T00:00:00+00:00</time>
        <ele>529.0</ele>
      </trkpt>
      <trkpt lat="43.977725" lon="10.961939">
        <time>1970-01-01T00:00:00+00:00</time>
        <ele>533.0</ele>
      </trkpt>
      <trkpt lat="43.977835" lon="10.962281">
        <time>1970-01-01T00:00:00+00:00</time>
        <ele>539.0</ele>
      </trkpt>
      <trkpt lat="43.978025" lon="10.962705">
        <time>1970-01-01T00:00:00+00:00</time>
        <ele>543.0</ele>
      </trkpt>
      <trkpt lat="43.978161" lon="10.962922">
        <time>1970-01-01T00:00:00+00:00</time>
        <ele>547.0</ele>
      </trkpt>
      <trkpt lat="43.978325" lon="10.963469">
        <time>1970-01-01T00:00:00+00:00</time>
        <ele>554.0</ele>
      </trkpt>
      <trkpt lat="43.978466" lon="10.964046">
        <time>1970-01-01T00:00:00+00:00</time>
        <ele>560.0</ele>
      </trkpt>
      <trkpt lat="43.978495" lon="10.964316">
        <time>1970-01-01T00:00:00+00:00</time>
        <ele>562.0</ele>
      </trkpt>
      <trkpt lat="43.978634" lon="10.964681">
        <time>1970-01-01T00:00:00+00:00</time>
        <ele>564.0</ele>
      </trkpt>
      <trkpt lat="43.978677" lon="10.964847">
        <time>1970-01-01T00:00:00+00:00</time>
        <ele>565.0</ele>
      </trkpt>
      <trkpt lat="43.97884" lon="10.965255">
        <time>1970-01-01T00:00:00+00:00</time>
        <ele>567.0</ele>
      </trkpt>
      <trkpt lat="43.979095" lon="10.965556">
        <time>1970-01-01T00:00:00+00:00</time>
        <ele>569.0</ele>
      </trkpt>
      <trkpt lat="43.979216" lon="10.965761">
        <time>1970-01-01T00:00:00+00:00</time>
        <ele>569.0</ele>
      </trkpt>
      <trkpt lat="43.97923" lon="10.965888">
        <time>1970-01-01T00:00:00+00:00</time>
        <ele>569.0</ele>
      </trkpt>
      <trkpt lat="43.979349" lon="10.966485">
        <time>1970-01-01T00:00:00+00:00</time>
        <ele>565.0</ele>
      </trkpt>
      <trkpt lat="43.97953" lon="10.96668">
        <time>1970-01-01T00:00:00+00:00</time>
        <ele>562.0</ele>
      </trkpt>
      <trkpt lat="43.979742" lon="10.966806">
        <time>1970-01-01T00:00:00+00:00</time>
        <ele>561.0</ele>
      </trkpt>
      <trkpt lat="43.980547" lon="10.967615">
        <time>1970-01-01T00:00:00+00:00</time>
        <ele>567.0</ele>
      </trkpt>
      <trkpt lat="43.980846" lon="10.967942">
        <time>1970-01-01T00:00:00+00:00</time>
        <ele>572.0</ele>
      </trkpt>
      <trkpt lat="43.981008" lon="10.968202">
        <time>1970-01-01T00:00:00+00:00</time>
        <ele>575.0</ele>
      </trkpt>
      <trkpt lat="43.981146" lon="10.968668">
        <time>1970-01-01T00:00:00+00:00</time>
        <ele>580.0</ele>
      </trkpt>
      <trkpt lat="43.981184" lon="10.968951">
        <time>1970-01-01T00:00:00+00:00</time>
        <ele>581.0</ele>
      </trkpt>
      <trkpt lat="43.98145" lon="10.969512">
        <time>1970-01-01T00:00:00+00:00</time>
        <ele>587.0</ele>
      </trkpt>
      <trkpt lat="43.981601" lon="10.969933">
        <time>1970-01-01T00:00:00+00:00</time>
        <ele>592.0</ele>
      </trkpt>
      <trkpt lat="43.981836" lon="10.97038">
        <time>1970-01-01T00:00:00+00:00</time>
        <ele>594.0</ele>
      </trkpt>
      <trkpt lat="43.982112" lon="10.970732">
        <time>1970-01-01T00:00:00+00:00</time>
        <ele>593.0</ele>
      </trkpt>
      <trkpt lat="43.982254" lon="10.970994">
        <time>1970-01-01T00:00:00+00:00</time>
        <ele>593.0</ele>
      </trkpt>
      <trkpt lat="43.982621" lon="10.972041">
        <time>1970-01-01T00:00:00+00:00</time>
        <ele>594.0</ele>
      </trkpt>
      <trkpt lat="43.982982" lon="10.972802">
        <time>1970-01-01T00:00:00+00:00</time>
        <ele>589.0</ele>
      </trkpt>
      <trkpt lat="43.98315" lon="10.973267">
        <time>1970-01-01T00:00:00+00:00</time>
        <ele>589.0</ele>
      </trkpt>
      <trkpt lat="43.983228" lon="10.973744">
        <time>1970-01-01T00:00:00+00:00</time>
        <ele>588.0</ele>
      </trkpt>
      <trkpt lat="43.98332" lon="10.973982">
        <time>1970-01-01T00:00:00+00:00</time>
        <ele>585.0</ele>
      </trkpt>
      <trkpt lat="43.983518" lon="10.974284">
        <time>1970-01-01T00:00:00+00:00</time>
        <ele>583.0</ele>
      </trkpt>
      <trkpt lat="43.983571" lon="10.974301">
        <time>1970-01-01T00:00:00+00:00</time>
        <ele>582.0</ele>
      </trkpt>
      <trkpt lat="43.983732" lon="10.974335">
        <time>1970-01-01T00:00:00+00:00</time>
        <ele>582.0</ele>
      </trkpt>
      <trkpt lat="43.983913" lon="10.974334">
        <time>1970-01-01T00:00:00+00:00</time>
        <ele>582.0</ele>
      </trkpt>
      <trkpt lat="43.984066" lon="10.974297">
        <time>1970-01-01T00:00:00+00:00</time>
        <ele>582.0</ele>
      </trkpt>
      <trkpt lat="43.984268" lon="10.974314">
        <time>1970-01-01T00:00:00+00:00</time>
        <ele>586.0</ele>
      </trkpt>
      <trkpt lat="43.984448" lon="10.974504">
        <time>1970-01-01T00:00:00+00:00</time>
        <ele>593.0</ele>
      </trkpt>
      <trkpt lat="43.984643" lon="10.97498">
        <time>1970-01-01T00:00:00+00:00</time>
        <ele>606.0</ele>
      </trkpt>
      <trkpt lat="43.984642" lon="10.975702">
        <time>1970-01-01T00:00:00+00:00</time>
        <ele>616.0</ele>
      </trkpt>
      <trkpt lat="43.984874" lon="10.976086">
        <time>1970-01-01T00:00:00+00:00</time>
        <ele>619.0</ele>
      </trkpt>
      <trkpt lat="43.985016" lon="10.976286">
        <time>1970-01-01T00:00:00+00:00</time>
        <ele>622.0</ele>
      </trkpt>
      <trkpt lat="43.985216" lon="10.976388">
        <time>1970-01-01T00:00:00+00:00</time>
        <ele>625.0</ele>
      </trkpt>
      <trkpt lat="43.985311" lon="10.97638">
        <time>1970-01-01T00:00:00+00:00</time>
        <ele>626.0</ele>
      </trkpt>
      <trkpt lat="43.985511" lon="10.976274">
        <time>1970-01-01T00:00:00+00:00</time>
        <ele>626.0</ele>
      </trkpt>
      <trkpt lat="43.985652" lon="10.976255">
        <time>1970-01-01T00:00:00+00:00</time>
        <ele>627.0</ele>
      </trkpt>
      <trkpt lat="43.985773" lon="10.976383">
        <time>1970-01-01T00:00:00+00:00</time>
        <ele>632.0</ele>
      </trkpt>
      <trkpt lat="43.985779" lon="10.976646">
        <time>1970-01-01T00:00:00+00:00</time>
        <ele>638.0</ele>
      </trkpt>
      <trkpt lat="43.985746" lon="10.976963">
        <time>1970-01-01T00:00:00+00:00</time>
        <ele>641.0</ele>
      </trkpt>
      <trkpt lat="43.985757" lon="10.977188">
        <time>1970-01-01T00:00:00+00:00</time>
        <ele>644.0</ele>
      </trkpt>
      <trkpt lat="43.985834" lon="10.977434">
        <time>1970-01-01T00:00:00+00:00</time>
        <ele>647.0</ele>
      </trkpt>
      <trkpt lat="43.985988" lon="10.977725">
        <time>1970-01-01T00:00:00+00:00</time>
        <ele>650.0</ele>
      </trkpt>
      <trkpt lat="43.986307" lon="10.978061">
        <time>1970-01-01T00:00:00+00:00</time>
        <ele>659.0</ele>
      </trkpt>
      <trkpt lat="43.986488" lon="10.978278">
        <time>1970-01-01T00:00:00+00:00</time>
        <ele>666.0</ele>
      </trkpt>
      <trkpt lat="43.986618" lon="10.97847">
        <time>1970-01-01T00:00:00+00:00</time>
        <ele>671.0</ele>
      </trkpt>
      <trkpt lat="43.986805" lon="10.978806">
        <time>1970-01-01T00:00:00+00:00</time>
        <ele>679.0</ele>
      </trkpt>
      <trkpt lat="43.986978" lon="10.979077">
        <time>1970-01-01T00:00:00+00:00</time>
        <ele>685.0</ele>
      </trkpt>
      <trkpt lat="43.987263" lon="10.980009">
        <time>1970-01-01T00:00:00+00:00</time>
        <ele>695.0</ele>
      </trkpt>
      <trkpt lat="43.987326" lon="10.980315">
        <time>1970-01-01T00:00:00+00:00</time>
        <ele>699.0</ele>
      </trkpt>
      <trkpt lat="43.987349" lon="10.980705">
        <time>1970-01-01T00:00:00+00:00</time>
        <ele>702.0</ele>
      </trkpt>
      <trkpt lat="43.987345" lon="10.980948">
        <time>1970-01-01T00:00:00+00:00</time>
        <ele>703.0</ele>
      </trkpt>
      <trkpt lat="43.987549" lon="10.981664">
        <time>1970-01-01T00:00:00+00:00</time>
        <ele>705.0</ele>
      </trkpt>
      <trkpt lat="43.98775" lon="10.981996">
        <time>1970-01-01T00:00:00+00:00</time>
        <ele>709.0</ele>
      </trkpt>
      <trkpt lat="43.987881" lon="10.982117">
        <time>1970-01-01T00:00:00+00:00</time>
        <ele>711.0</ele>
      </trkpt>
      <trkpt lat="43.988009" lon="10.982276">
        <time>1970-01-01T00:00:00+00:00</time>
        <ele>713.0</ele>
      </trkpt>
      <trkpt lat="43.988137" lon="10.982461">
        <time>1970-01-01T00:00:00+00:00</time>
        <ele>713.0</ele>
      </trkpt>
      <trkpt lat="43.9882" lon="10.982581">
        <time>1970-01-01T00:00:00+00:00</time>
        <ele>711.0</ele>
      </trkpt>
      <trkpt lat="43.988275" lon="10.982565">
        <time>1970-01-01T00:00:00+00:00</time>
        <ele>714.0</ele>
      </trkpt>
      <trkpt lat="43.988552" lon="10.982772">
        <time>1970-01-01T00:00:00+00:00</time>
        <ele>716.0</ele>
      </trkpt>
      <trkpt lat="43.989237" lon="10.983173">
        <time>1970-01-01T00:00:00+00:00</time>
        <ele>721.0</ele>
      </trkpt>
      <trkpt lat="43.989592" lon="10.983476">
        <time>1970-01-01T00:00:00+00:00</time>
        <ele>724.0</ele>
      </trkpt>
      <trkpt lat="43.989821" lon="10.983716">
        <time>1970-01-01T00:00:00+00:00</time>
        <ele>726.0</ele>
      </trkpt>
      <trkpt lat="43.990421" lon="10.984549">
        <time>1970-01-01T00:00:00+00:00</time>
        <ele>726.0</ele>
      </trkpt>
      <trkpt lat="43.990879" lon="10.985082">
        <time>1970-01-01T00:00:00+00:00</time>
        <ele>735.0</ele>
      </trkpt>
      <trkpt lat="43.991115" lon="10.985299">
        <time>1970-01-01T00:00:00+00:00</time>
        <ele>739.0</ele>
      </trkpt>
      <trkpt lat="43.991386" lon="10.9855">
        <time>1970-01-01T00:00:00+00:00</time>
        <ele>743.0</ele>
      </trkpt>
      <trkpt lat="43.991798" lon="10.985761">
        <time>1970-01-01T00:00:00+00:00</time>
        <ele>746.0</ele>
      </trkpt>
      <trkpt lat="43.991793" lon="10.985615">
        <time>1970-01-01T00:00:00+00:00</time>
        <ele>745.0</ele>
      </trkpt>
      <trkpt lat="43.991704" lon="10.985459">
        <time>1970-01-01T00:00:00+00:00</time>
        <ele>744.0</ele>
      </trkpt>
      <trkpt lat="43.991564" lon="10.985302">
        <time>1970-01-01T00:00:00+00:00</time>
        <ele>745.0</ele>
      </trkpt>
      <trkpt lat="43.991461" lon="10.985133">
        <time>1970-01-01T00:00:00+00:00</time>
        <ele>746.0</ele>
      </trkpt>
      <trkpt lat="43.991287" lon="10.984651">
        <time>1970-01-01T00:00:00+00:00</time>
        <ele>746.0</ele>
      </trkpt>
      <trkpt lat="43.991165" lon="10.984377">
        <time>1970-01-01T00:00:00+00:00</time>
        <ele>746.0</ele>
      </trkpt>
      <trkpt lat="43.991107" lon="10.984193">
        <time>1970-01-01T00:00:00+00:00</time>
        <ele>746.0</ele>
      </trkpt>
      <trkpt lat="43.991107" lon="10.984193">
        <time>1970-01-01T00:00:00+00:00</time>
        <ele>746.0</ele>
      </trkpt>
      <trkpt lat="43.991165" lon="10.984377">
        <time>1970-01-01T00:00:00+00:00</time>
        <ele>746.0</ele>
      </trkpt>
      <trkpt lat="43.991287" lon="10.984651">
        <time>1970-01-01T00:00:00+00:00</time>
        <ele>746.0</ele>
      </trkpt>
      <trkpt lat="43.991461" lon="10.985133">
        <time>1970-01-01T00:00:00+00:00</time>
        <ele>746.0</ele>
      </trkpt>
      <trkpt lat="43.991564" lon="10.985302">
        <time>1970-01-01T00:00:00+00:00</time>
        <ele>745.0</ele>
      </trkpt>
      <trkpt lat="43.991704" lon="10.985459">
        <time>1970-01-01T00:00:00+00:00</time>
        <ele>744.0</ele>
      </trkpt>
      <trkpt lat="43.991793" lon="10.985615">
        <time>1970-01-01T00:00:00+00:00</time>
        <ele>745.0</ele>
      </trkpt>
      <trkpt lat="43.991798" lon="10.985761">
        <time>1970-01-01T00:00:00+00:00</time>
        <ele>746.0</ele>
      </trkpt>
      <trkpt lat="43.991386" lon="10.9855">
        <time>1970-01-01T00:00:00+00:00</time>
        <ele>743.0</ele>
      </trkpt>
      <trkpt lat="43.991115" lon="10.985299">
        <time>1970-01-01T00:00:00+00:00</time>
        <ele>739.0</ele>
      </trkpt>
      <trkpt lat="43.990879" lon="10.985082">
        <time>1970-01-01T00:00:00+00:00</time>
        <ele>735.0</ele>
      </trkpt>
      <trkpt lat="43.990421" lon="10.984549">
        <time>1970-01-01T00:00:00+00:00</time>
        <ele>726.0</ele>
      </trkpt>
      <trkpt lat="43.989821" lon="10.983716">
        <time>1970-01-01T00:00:00+00:00</time>
        <ele>726.0</ele>
      </trkpt>
      <trkpt lat="43.989592" lon="10.983476">
        <time>1970-01-01T00:00:00+00:00</time>
        <ele>724.0</ele>
      </trkpt>
      <trkpt lat="43.989237" lon="10.983173">
        <time>1970-01-01T00:00:00+00:00</time>
        <ele>721.0</ele>
      </trkpt>
      <trkpt lat="43.988552" lon="10.982772">
        <time>1970-01-01T00:00:00+00:00</time>
        <ele>716.0</ele>
      </trkpt>
      <trkpt lat="43.988275" lon="10.982565">
        <time>1970-01-01T00:00:00+00:00</time>
        <ele>714.0</ele>
      </trkpt>
      <trkpt lat="43.9882" lon="10.982581">
        <time>1970-01-01T00:00:00+00:00</time>
        <ele>711.0</ele>
      </trkpt>
      <trkpt lat="43.988137" lon="10.982461">
        <time>1970-01-01T00:00:00+00:00</time>
        <ele>713.0</ele>
      </trkpt>
      <trkpt lat="43.988009" lon="10.982276">
        <time>1970-01-01T00:00:00+00:00</time>
        <ele>713.0</ele>
      </trkpt>
      <trkpt lat="43.987881" lon="10.982117">
        <time>1970-01-01T00:00:00+00:00</time>
        <ele>711.0</ele>
      </trkpt>
      <trkpt lat="43.98775" lon="10.981996">
        <time>1970-01-01T00:00:00+00:00</time>
        <ele>709.0</ele>
      </trkpt>
      <trkpt lat="43.987549" lon="10.981664">
        <time>1970-01-01T00:00:00+00:00</time>
        <ele>705.0</ele>
      </trkpt>
      <trkpt lat="43.987345" lon="10.980948">
        <time>1970-01-01T00:00:00+00:00</time>
        <ele>703.0</ele>
      </trkpt>
      <trkpt lat="43.987349" lon="10.980705">
        <time>1970-01-01T00:00:00+00:00</time>
        <ele>702.0</ele>
      </trkpt>
      <trkpt lat="43.987326" lon="10.980315">
        <time>1970-01-01T00:00:00+00:00</time>
        <ele>699.0</ele>
      </trkpt>
      <trkpt lat="43.987263" lon="10.980009">
        <time>1970-01-01T00:00:00+00:00</time>
        <ele>695.0</ele>
      </trkpt>
      <trkpt lat="43.986978" lon="10.979077">
        <time>1970-01-01T00:00:00+00:00</time>
        <ele>685.0</ele>
      </trkpt>
      <trkpt lat="43.986805" lon="10.978806">
        <time>1970-01-01T00:00:00+00:00</time>
        <ele>679.0</ele>
      </trkpt>
      <trkpt lat="43.986618" lon="10.97847">
        <time>1970-01-01T00:00:00+00:00</time>
        <ele>671.0</ele>
      </trkpt>
      <trkpt lat="43.986488" lon="10.978278">
        <time>1970-01-01T00:00:00+00:00</time>
        <ele>666.0</ele>
      </trkpt>
      <trkpt lat="43.986307" lon="10.978061">
        <time>1970-01-01T00:00:00+00:00</time>
        <ele>659.0</ele>
      </trkpt>
      <trkpt lat="43.985988" lon="10.977725">
        <time>1970-01-01T00:00:00+00:00</time>
        <ele>650.0</ele>
      </trkpt>
      <trkpt lat="43.985834" lon="10.977434">
        <time>1970-01-01T00:00:00+00:00</time>
        <ele>647.0</ele>
      </trkpt>
      <trkpt lat="43.985757" lon="10.977188">
        <time>1970-01-01T00:00:00+00:00</time>
        <ele>644.0</ele>
      </trkpt>
      <trkpt lat="43.985746" lon="10.976963">
        <time>1970-01-01T00:00:00+00:00</time>
        <ele>641.0</ele>
      </trkpt>
      <trkpt lat="43.985779" lon="10.976646">
        <time>1970-01-01T00:00:00+00:00</time>
        <ele>638.0</ele>
      </trkpt>
      <trkpt lat="43.985773" lon="10.976383">
        <time>1970-01-01T00:00:00+00:00</time>
        <ele>632.0</ele>
      </trkpt>
      <trkpt lat="43.985652" lon="10.976255">
        <time>1970-01-01T00:00:00+00:00</time>
        <ele>627.0</ele>
      </trkpt>
      <trkpt lat="43.985511" lon="10.976274">
        <time>1970-01-01T00:00:00+00:00</time>
        <ele>626.0</ele>
      </trkpt>
      <trkpt lat="43.985311" lon="10.97638">
        <time>1970-01-01T00:00:00+00:00</time>
        <ele>626.0</ele>
      </trkpt>
      <trkpt lat="43.985216" lon="10.976388">
        <time>1970-01-01T00:00:00+00:00</time>
        <ele>625.0</ele>
      </trkpt>
      <trkpt lat="43.985016" lon="10.976286">
        <time>1970-01-01T00:00:00+00:00</time>
        <ele>622.0</ele>
      </trkpt>
      <trkpt lat="43.984874" lon="10.976086">
        <time>1970-01-01T00:00:00+00:00</time>
        <ele>619.0</ele>
      </trkpt>
      <trkpt lat="43.984642" lon="10.975702">
        <time>1970-01-01T00:00:00+00:00</time>
        <ele>616.0</ele>
      </trkpt>
      <trkpt lat="43.984643" lon="10.97498">
        <time>1970-01-01T00:00:00+00:00</time>
        <ele>606.0</ele>
      </trkpt>
      <trkpt lat="43.984448" lon="10.974504">
        <time>1970-01-01T00:00:00+00:00</time>
        <ele>593.0</ele>
      </trkpt>
      <trkpt lat="43.984268" lon="10.974314">
        <time>1970-01-01T00:00:00+00:00</time>
        <ele>586.0</ele>
      </trkpt>
      <trkpt lat="43.984066" lon="10.974297">
        <time>1970-01-01T00:00:00+00:00</time>
        <ele>582.0</ele>
      </trkpt>
      <trkpt lat="43.983913" lon="10.974334">
        <time>1970-01-01T00:00:00+00:00</time>
        <ele>582.0</ele>
      </trkpt>
      <trkpt lat="43.983732" lon="10.974335">
        <time>1970-01-01T00:00:00+00:00</time>
        <ele>582.0</ele>
      </trkpt>
      <trkpt lat="43.983571" lon="10.974301">
        <time>1970-01-01T00:00:00+00:00</time>
        <ele>582.0</ele>
      </trkpt>
      <trkpt lat="43.983518" lon="10.974284">
        <time>1970-01-01T00:00:00+00:00</time>
        <ele>583.0</ele>
      </trkpt>
      <trkpt lat="43.98332" lon="10.973982">
        <time>1970-01-01T00:00:00+00:00</time>
        <ele>585.0</ele>
      </trkpt>
      <trkpt lat="43.983228" lon="10.973744">
        <time>1970-01-01T00:00:00+00:00</time>
        <ele>588.0</ele>
      </trkpt>
      <trkpt lat="43.98315" lon="10.973267">
        <time>1970-01-01T00:00:00+00:00</time>
        <ele>589.0</ele>
      </trkpt>
      <trkpt lat="43.982982" lon="10.972802">
        <time>1970-01-01T00:00:00+00:00</time>
        <ele>589.0</ele>
      </trkpt>
      <trkpt lat="43.982621" lon="10.972041">
        <time>1970-01-01T00:00:00+00:00</time>
        <ele>594.0</ele>
      </trkpt>
      <trkpt lat="43.982254" lon="10.970994">
        <time>1970-01-01T00:00:00+00:00</time>
        <ele>593.0</ele>
      </trkpt>
      <trkpt lat="43.982112" lon="10.970732">
        <time>1970-01-01T00:00:00+00:00</time>
        <ele>593.0</ele>
      </trkpt>
      <trkpt lat="43.981836" lon="10.97038">
        <time>1970-01-01T00:00:00+00:00</time>
        <ele>594.0</ele>
      </trkpt>
      <trkpt lat="43.981601" lon="10.969933">
        <time>1970-01-01T00:00:00+00:00</time>
        <ele>592.0</ele>
      </trkpt>
      <trkpt lat="43.98145" lon="10.969512">
        <time>1970-01-01T00:00:00+00:00</time>
        <ele>587.0</ele>
      </trkpt>
      <trkpt lat="43.981184" lon="10.968951">
        <time>1970-01-01T00:00:00+00:00</time>
        <ele>581.0</ele>
      </trkpt>
      <trkpt lat="43.981146" lon="10.968668">
        <time>1970-01-01T00:00:00+00:00</time>
        <ele>580.0</ele>
      </trkpt>
      <trkpt lat="43.981008" lon="10.968202">
        <time>1970-01-01T00:00:00+00:00</time>
        <ele>575.0</ele>
      </trkpt>
      <trkpt lat="43.980846" lon="10.967942">
        <time>1970-01-01T00:00:00+00:00</time>
        <ele>572.0</ele>
      </trkpt>
      <trkpt lat="43.980547" lon="10.967615">
        <time>1970-01-01T00:00:00+00:00</time>
        <ele>567.0</ele>
      </trkpt>
      <trkpt lat="43.979742" lon="10.966806">
        <time>1970-01-01T00:00:00+00:00</time>
        <ele>561.0</ele>
      </trkpt>
      <trkpt lat="43.97953" lon="10.96668">
        <time>1970-01-01T00:00:00+00:00</time>
        <ele>562.0</ele>
      </trkpt>
      <trkpt lat="43.979349" lon="10.966485">
        <time>1970-01-01T00:00:00+00:00</time>
        <ele>565.0</ele>
      </trkpt>
      <trkpt lat="43.97923" lon="10.965888">
        <time>1970-01-01T00:00:00+00:00</time>
        <ele>569.0</ele>
      </trkpt>
      <trkpt lat="43.979216" lon="10.965761">
        <time>1970-01-01T00:00:00+00:00</time>
        <ele>569.0</ele>
      </trkpt>
      <trkpt lat="43.979095" lon="10.965556">
        <time>1970-01-01T00:00:00+00:00</time>
        <ele>569.0</ele>
      </trkpt>
      <trkpt lat="43.97884" lon="10.965255">
        <time>1970-01-01T00:00:00+00:00</time>
        <ele>567.0</ele>
      </trkpt>
      <trkpt lat="43.978677" lon="10.964847">
        <time>1970-01-01T00:00:00+00:00</time>
        <ele>565.0</ele>
      </trkpt>
      <trkpt lat="43.978634" lon="10.964681">
        <time>1970-01-01T00:00:00+00:00</time>
        <ele>564.0</ele>
      </trkpt>
      <trkpt lat="43.978495" lon="10.964316">
        <time>1970-01-01T00:00:00+00:00</time>
        <ele>562.0</ele>
      </trkpt>
      <trkpt lat="43.978466" lon="10.964046">
        <time>1970-01-01T00:00:00+00:00</time>
        <ele>560.0</ele>
      </trkpt>
      <trkpt lat="43.978325" lon="10.963469">
        <time>1970-01-01T00:00:00+00:00</time>
        <ele>554.0</ele>
      </trkpt>
      <trkpt lat="43.978161" lon="10.962922">
        <time>1970-01-01T00:00:00+00:00</time>
        <ele>547.0</ele>
      </trkpt>
      <trkpt lat="43.978025" lon="10.962705">
        <time>1970-01-01T00:00:00+00:00</time>
        <ele>543.0</ele>
      </trkpt>
      <trkpt lat="43.977835" lon="10.962281">
        <time>1970-01-01T00:00:00+00:00</time>
        <ele>539.0</ele>
      </trkpt>
      <trkpt lat="43.977725" lon="10.961939">
        <time>1970-01-01T00:00:00+00:00</time>
        <ele>533.0</ele>
      </trkpt>
      <trkpt lat="43.977631" lon="10.961777">
        <time>1970-01-01T00:00:00+00:00</time>
        <ele>529.0</ele>
      </trkpt>
      <trkpt lat="43.97745" lon="10.961666">
        <time>1970-01-01T00:00:00+00:00</time>
        <ele>525.0</ele>
      </trkpt>
      <trkpt lat="43.977081" lon="10.961579">
        <time>1970-01-01T00:00:00+00:00</time>
        <ele>517.0</ele>
      </trkpt>
      <trkpt lat="43.976837" lon="10.961494">
        <time>1970-01-01T00:00:00+00:00</time>
        <ele>512.0</ele>
      </trkpt>
      <trkpt lat="43.976329" lon="10.961215">
        <time>1970-01-01T00:00:00+00:00</time>
        <ele>501.0</ele>
      </trkpt>
      <trkpt lat="43.976225" lon="10.961192">
        <time>1970-01-01T00:00:00+00:00</time>
        <ele>500.0</ele>
      </trkpt>
      <trkpt lat="43.976184" lon="10.961216">
        <time>1970-01-01T00:00:00+00:00</time>
        <ele>499.0</ele>
      </trkpt>
      <trkpt lat="43.976113" lon="10.961201">
        <time>1970-01-01T00:00:00+00:00</time>
        <ele>497.0</ele>
      </trkpt>
      <trkpt lat="43.976023" lon="10.961125">
        <time>1970-01-01T00:00:00+00:00</time>
        <ele>495.0</ele>
      </trkpt>
      <trkpt lat="43.975997" lon="10.961142">
        <time>1970-01-01T00:00:00+00:00</time>
        <ele>494.0</ele>
      </trkpt>
      <trkpt lat="43.975891" lon="10.960837">
        <time>1970-01-01T00:00:00+00:00</time>
        <ele>490.0</ele>
      </trkpt>
      <trkpt lat="43.975899" lon="10.960766">
        <time>1970-01-01T00:00:00+00:00</time>
        <ele>489.0</ele>
      </trkpt>
      <trkpt lat="43.975858" lon="10.960803">
        <time>1970-01-01T00:00:00+00:00</time>
        <ele>489.0</ele>
      </trkpt>
      <trkpt lat="43.975803" lon="10.960742">
        <time>1970-01-01T00:00:00+00:00</time>
        <ele>487.0</ele>
      </trkpt>
      <trkpt lat="43.975676" lon="10.96073">
        <time>1970-01-01T00:00:00+00:00</time>
        <ele>485.0</ele>
      </trkpt>
      <trkpt lat="43.975569" lon="10.960646">
        <time>1970-01-01T00:00:00+00:00</time>
        <ele>481.0</ele>
      </trkpt>
      <trkpt lat="43.975538" lon="10.960495">
        <time>1970-01-01T00:00:00+00:00</time>
        <ele>477.0</ele>
      </trkpt>
      <trkpt lat="43.97561" lon="10.960346">
        <time>1970-01-01T00:00:00+00:00</time>
        <ele>477.0</ele>
      </trkpt>
      <trkpt lat="43.975574" lon="10.960254">
        <time>1970-01-01T00:00:00+00:00</time>
        <ele>474.0</ele>
      </trkpt>
      <trkpt lat="43.975594" lon="10.960223">
        <time>1970-01-01T00:00:00+00:00</time>
        <ele>474.0</ele>
      </trkpt>
      <trkpt lat="43.975542" lon="10.960247">
        <time>1970-01-01T00:00:00+00:00</time>
        <ele>473.0</ele>
      </trkpt>
      <trkpt lat="43.975479" lon="10.960228">
        <time>1970-01-01T00:00:00+00:00</time>
        <ele>471.0</ele>
      </trkpt>
      <trkpt lat="43.97541" lon="10.960252">
        <time>1970-01-01T00:00:00+00:00</time>
        <ele>470.0</ele>
      </trkpt>
      <trkpt lat="43.975319" lon="10.960242">
        <time>1970-01-01T00:00:00+00:00</time>
        <ele>467.0</ele>
      </trkpt>
      <trkpt lat="43.974829" lon="10.960124">
        <time>1970-01-01T00:00:00+00:00</time>
        <ele>457.0</ele>
      </trkpt>
      <trkpt lat="43.974659" lon="10.959967">
        <time>1970-01-01T00:00:00+00:00</time>
        <ele>452.0</ele>
      </trkpt>
      <trkpt lat="43.97451" lon="10.9598">
        <time>1970-01-01T00:00:00+00:00</time>
        <ele>447.0</ele>
      </trkpt>
      <trkpt lat="43.974116" lon="10.959466">
        <time>1970-01-01T00:00:00+00:00</time>
        <ele>440.0</ele>
      </trkpt>
      <trkpt lat="43.973937" lon="10.959269">
        <time>1970-01-01T00:00:00+00:00</time>
        <ele>435.0</ele>
      </trkpt>
      <trkpt lat="43.973671" lon="10.958911">
        <time>1970-01-01T00:00:00+00:00</time>
        <ele>427.0</ele>
      </trkpt>
      <trkpt lat="43.973565" lon="10.958813">
        <time>1970-01-01T00:00:00+00:00</time>
        <ele>425.0</ele>
      </trkpt>
      <trkpt lat="43.97327" lon="10.958686">
        <time>1970-01-01T00:00:00+00:00</time>
        <ele>418.0</ele>
      </trkpt>
      <trkpt lat="43.973029" lon="10.958708">
        <time>1970-01-01T00:00:00+00:00</time>
        <ele>413.0</ele>
      </trkpt>
      <trkpt lat="43.972465" lon="10.958506">
        <time>1970-01-01T00:00:00+00:00</time>
        <ele>400.0</ele>
      </trkpt>
      <trkpt lat="43.972268" lon="10.958378">
        <time>1970-01-01T00:00:00+00:00</time>
        <ele>395.0</ele>
      </trkpt>
      <trkpt lat="43.972132" lon="10.958347">
        <time>1970-01-01T00:00:00+00:00</time>
        <ele>391.0</ele>
      </trkpt>
      <trkpt lat="43.971488" lon="10.957985">
        <time>1970-01-01T00:00:00+00:00</time>
        <ele>381.0</ele>
      </trkpt>
      <trkpt lat="43.971259" lon="10.957791">
        <time>1970-01-01T00:00:00+00:00</time>
        <ele>374.0</ele>
      </trkpt>
      <trkpt lat="43.9709" lon="10.95767">
        <time>1970-01-01T00:00:00+00:00</time>
        <ele>367.0</ele>
      </trkpt>
      <trkpt lat="43.970622" lon="10.957435">
        <time>1970-01-01T00:00:00+00:00</time>
        <ele>364.0</ele>
      </trkpt>
      <trkpt lat="43.970604" lon="10.957415">
        <time>1970-01-01T00:00:00+00:00</time>
        <ele>363.0</ele>
      </trkpt>
      <trkpt lat="43.97052" lon="10.957413">
        <time>1970-01-01T00:00:00+00:00</time>
        <ele>361.0</ele>
      </trkpt>
      <trkpt lat="43.970436" lon="10.95738">
        <time>1970-01-01T00:00:00+00:00</time>
        <ele>359.0</ele>
      </trkpt>
      <trkpt lat="43.97027" lon="10.95668">
        <time>1970-01-01T00:00:00+00:00</time>
        <ele>350.0</ele>
      </trkpt>
      <trkpt lat="43.970224" lon="10.956584">
        <time>1970-01-01T00:00:00+00:00</time>
        <ele>349.0</ele>
      </trkpt>
      <trkpt lat="43.970193" lon="10.956563">
        <time>1970-01-01T00:00:00+00:00</time>
        <ele>348.0</ele>
      </trkpt>
      <trkpt lat="43.970145" lon="10.956572">
        <time>1970-01-01T00:00:00+00:00</time>
        <ele>347.0</ele>
      </trkpt>
      <trkpt lat="43.970097" lon="10.956645">
        <time>1970-01-01T00:00:00+00:00</time>
        <ele>347.0</ele>
      </trkpt>
      <trkpt lat="43.969988" lon="10.956922">
        <time>1970-01-01T00:00:00+00:00</time>
        <ele>346.0</ele>
      </trkpt>
      <trkpt lat="43.96995" lon="10.95694">
        <time>1970-01-01T00:00:00+00:00</time>
        <ele>345.0</ele>
      </trkpt>
      <trkpt lat="43.969885" lon="10.956918">
        <time>1970-01-01T00:00:00+00:00</time>
        <ele>343.0</ele>
      </trkpt>
      <trkpt lat="43.969807" lon="10.956766">
        <time>1970-01-01T00:00:00+00:00</time>
        <ele>339.0</ele>
      </trkpt>
      <trkpt lat="43.969763" lon="10.956475">
        <time>1970-01-01T00:00:00+00:00</time>
        <ele>336.0</ele>
      </trkpt>
      <trkpt lat="43.9698" lon="10.956224">
        <time>1970-01-01T00:00:00+00:00</time>
        <ele>335.0</ele>
      </trkpt>
      <trkpt lat="43.969858" lon="10.956045">
        <time>1970-01-01T00:00:00+00:00</time>
        <ele>335.0</ele>
      </trkpt>
      <trkpt lat="43.969858" lon="10.955989">
        <time>1970-01-01T00:00:00+00:00</time>
        <ele>334.0</ele>
      </trkpt>
      <trkpt lat="43.969816" lon="10.955956">
        <time>1970-01-01T00:00:00+00:00</time>
        <ele>332.0</ele>
      </trkpt>
      <trkpt lat="43.969715" lon="10.956041">
        <time>1970-01-01T00:00:00+00:00</time>
        <ele>331.0</ele>
      </trkpt>
      <trkpt lat="43.969683" lon="10.956055">
        <time>1970-01-01T00:00:00+00:00</time>
        <ele>330.0</ele>
      </trkpt>
      <trkpt lat="43.969633" lon="10.956045">
        <time>1970-01-01T00:00:00+00:00</time>
        <ele>330.0</ele>
      </trkpt>
      <trkpt lat="43.969746" lon="10.955542">
        <time>1970-01-01T00:00:00+00:00</time>
        <ele>327.0</ele>
      </trkpt>
      <trkpt lat="43.96975" lon="10.955389">
        <time>1970-01-01T00:00:00+00:00</time>
        <ele>324.0</ele>
      </trkpt>
      <trkpt lat="43.969724" lon="10.955319">
        <time>1970-01-01T00:00:00+00:00</time>
        <ele>323.0</ele>
      </trkpt>
      <trkpt lat="43.969651" lon="10.955245">
        <time>1970-01-01T00:00:00+00:00</time>
        <ele>322.0</ele>
      </trkpt>
      <trkpt lat="43.969598" lon="10.955233">
        <time>1970-01-01T00:00:00+00:00</time>
        <ele>322.0</ele>
      </trkpt>
      <trkpt lat="43.969564" lon="10.955252">
        <time>1970-01-01T00:00:00+00:00</time>
        <ele>322.0</ele>
      </trkpt>
      <trkpt lat="43.969501" lon="10.955306">
        <time>1970-01-01T00:00:00+00:00</time>
        <ele>323.0</ele>
      </trkpt>
      <trkpt lat="43.969398" lon="10.955536">
        <time>1970-01-01T00:00:00+00:00</time>
        <ele>323.0</ele>
      </trkpt>
      <trkpt lat="43.969352" lon="10.955345">
        <time>1970-01-01T00:00:00+00:00</time>
        <ele>322.0</ele>
      </trkpt>
      <trkpt lat="43.969339" lon="10.95523">
        <time>1970-01-01T00:00:00+00:00</time>
        <ele>323.0</ele>
      </trkpt>
      <trkpt lat="43.969253" lon="10.954978">
        <time>1970-01-01T00:00:00+00:00</time>
        <ele>324.0</ele>
      </trkpt>
      <trkpt lat="43.969245" lon="10.954308">
        <time>1970-01-01T00:00:00+00:00</time>
        <ele>320.0</ele>
      </trkpt>
      <trkpt lat="43.969226" lon="10.95404">
        <time>1970-01-01T00:00:00+00:00</time>
        <ele>315.0</ele>
      </trkpt>
      <trkpt lat="43.969021" lon="10.953691">
        <time>1970-01-01T00:00:00+00:00</time>
        <ele>307.0</ele>
      </trkpt>
      <trkpt lat="43.96877" lon="10.953455">
        <time>1970-01-01T00:00:00+00:00</time>
        <ele>301.0</ele>
      </trkpt>
      <trkpt lat="43.968376" lon="10.953194">
        <time>1970-01-01T00:00:00+00:00</time>
        <ele>299.0</ele>
      </trkpt>
      <trkpt lat="43.968005" lon="10.953069">
        <time>1970-01-01T00:00:00+00:00</time>
        <ele>297.0</ele>
      </trkpt>
      <trkpt lat="43.967419" lon="10.953085">
        <time>1970-01-01T00:00:00+00:00</time>
        <ele>285.0</ele>
      </trkpt>
      <trkpt lat="43.967141" lon="10.953187">
        <time>1970-01-01T00:00:00+00:00</time>
        <ele>279.0</ele>
      </trkpt>
      <trkpt lat="43.966878" lon="10.953387">
        <time>1970-01-01T00:00:00+00:00</time>
        <ele>274.0</ele>
      </trkpt>
      <trkpt lat="43.966033" lon="10.953546">
        <time>1970-01-01T00:00:00+00:00</time>
        <ele>263.0</ele>
      </trkpt>
      <trkpt lat="43.965867" lon="10.953546">
        <time>1970-01-01T00:00:00+00:00</time>
        <ele>259.0</ele>
      </trkpt>
      <trkpt lat="43.965716" lon="10.953498">
        <time>1970-01-01T00:00:00+00:00</time>
        <ele>255.0</ele>
      </trkpt>
      <trkpt lat="43.964553" lon="10.95269">
        <time>1970-01-01T00:00:00+00:00</time>
        <ele>236.0</ele>
      </trkpt>
      <trkpt lat="43.964215" lon="10.952511">
        <time>1970-01-01T00:00:00+00:00</time>
        <ele>231.0</ele>
      </trkpt>
      <trkpt lat="43.964054" lon="10.952401">
        <time>1970-01-01T00:00:00+00:00</time>
        <ele>228.0</ele>
      </trkpt>
      <trkpt lat="43.963952" lon="10.952305">
        <time>1970-01-01T00:00:00+00:00</time>
        <ele>226.0</ele>
      </trkpt>
      <trkpt lat="43.963905" lon="10.952189">
        <time>1970-01-01T00:00:00+00:00</time>
        <ele>225.0</ele>
      </trkpt>
      <trkpt lat="43.963916" lon="10.952124">
        <time>1970-01-01T00:00:00+00:00</time>
        <ele>224.0</ele>
      </trkpt>
      <trkpt lat="43.96407" lon="10.951844">
        <time>1970-01-01T00:00:00+00:00</time>
        <ele>222.0</ele>
      </trkpt>
      <trkpt lat="43.96416" lon="10.951638">
        <time>1970-01-01T00:00:00+00:00</time>
        <ele>218.0</ele>
      </trkpt>
      <trkpt lat="43.963512" lon="10.951431">
        <time>1970-01-01T00:00:00+00:00</time>
        <ele>210.0</ele>
      </trkpt>
      <trkpt lat="43.963391" lon="10.951414">
        <time>1970-01-01T00:00:00+00:00</time>
        <ele>208.0</ele>
      </trkpt>
      <trkpt lat="43.963256" lon="10.951467">
        <time>1970-01-01T00:00:00+00:00</time>
        <ele>207.0</ele>
      </trkpt>
      <trkpt lat="43.963173" lon="10.951533">
        <time>1970-01-01T00:00:00+00:00</time>
        <ele>207.0</ele>
      </trkpt>
      <trkpt lat="43.963129" lon="10.951331">
        <time>1970-01-01T00:00:00+00:00</time>
        <ele>204.0</ele>
      </trkpt>
      <trkpt lat="43.963006" lon="10.951071">
        <time>1970-01-01T00:00:00+00:00</time>
        <ele>200.0</ele>
      </trkpt>
      <trkpt lat="43.962643" lon="10.950642">
        <time>1970-01-01T00:00:00+00:00</time>
        <ele>188.0</ele>
      </trkpt>
      <trkpt lat="43.962605" lon="10.950513">
        <time>1970-01-01T00:00:00+00:00</time>
        <ele>185.0</ele>
      </trkpt>
      <trkpt lat="43.962627" lon="10.95029">
        <time>1970-01-01T00:00:00+00:00</time>
        <ele>181.0</ele>
      </trkpt>
      <trkpt lat="43.962535" lon="10.950019">
        <time>1970-01-01T00:00:00+00:00</time>
        <ele>177.0</ele>
      </trkpt>
      <trkpt lat="43.962381" lon="10.949751">
        <time>1970-01-01T00:00:00+00:00</time>
        <ele>173.0</ele>
      </trkpt>
      <trkpt lat="43.962242" lon="10.949129">
        <time>1970-01-01T00:00:00+00:00</time>
        <ele>163.0</ele>
      </trkpt>
      <trkpt lat="43.962156" lon="10.948831">
        <time>1970-01-01T00:00:00+00:00</time>
        <ele>157.0</ele>
      </trkpt>
      <trkpt lat="43.961879" lon="10.948507">
        <time>1970-01-01T00:00:00+00:00</time>
        <ele>153.0</ele>
      </trkpt>
      <trkpt lat="43.961554" lon="10.948324">
        <time>1970-01-01T00:00:00+00:00</time>
        <ele>149.0</ele>
      </trkpt>
      <trkpt lat="43.961245" lon="10.948005">
        <time>1970-01-01T00:00:00+00:00</time>
        <ele>144.0</ele>
      </trkpt>
      <trkpt lat="43.961106" lon="10.947833">
        <time>1970-01-01T00:00:00+00:00</time>
        <ele>142.0</ele>
      </trkpt>
      <trkpt lat="43.960596" lon="10.947737">
        <time>1970-01-01T00:00:00+00:00</time>
        <ele>138.0</ele>
      </trkpt>
      <trkpt lat="43.960319" lon="10.947563">
        <time>1970-01-01T00:00:00+00:00</time>
        <ele>135.0</ele>
      </trkpt>
      <trkpt lat="43.96038" lon="10.947286">
        <time>1970-01-01T00:00:00+00:00</time>
        <ele>133.0</ele>
      </trkpt>
      <trkpt lat="43.960473" lon="10.946221">
        <time>1970-01-01T00:00:00+00:00</time>
        <ele>128.0</ele>
      </trkpt>
      <trkpt lat="43.959999" lon="10.946052">
        <time>1970-01-01T00:00:00+00:00</time>
        <ele>126.0</ele>
      </trkpt>
      <trkpt lat="43.958937" lon="10.945936">
        <time>1970-01-01T00:00:00+00:00</time>
        <ele>124.0</ele>
      </trkpt>
      <trkpt lat="43.958761" lon="10.945894">
        <time>1970-01-01T00:00:00+00:00</time>
        <ele>123.0</ele>
      </trkpt>
      <trkpt lat="43.95851" lon="10.94574">
        <time>1970-01-01T00:00:00+00:00</time>
        <ele>122.0</ele>
      </trkpt>
      <trkpt lat="43.958285" lon="10.945508">
        <time>1970-01-01T00:00:00+00:00</time>
        <ele>123.0</ele>
      </trkpt>
      <trkpt lat="43.958167" lon="10.945376">
        <time>1970-01-01T00:00:00+00:00</time>
        <ele>124.0</ele>
      </trkpt>
      <trkpt lat="43.958077" lon="10.945275">
        <time>1970-01-01T00:00:00+00:00</time>
        <ele>125.0</ele>
      </trkpt>
      <trkpt lat="43.95762" lon="10.944762">
        <time>1970-01-01T00:00:00+00:00</time>
        <ele>124.0</ele>
      </trkpt>
      <trkpt lat="43.956562" lon="10.943511">
        <time>1970-01-01T00:00:00+00:00</time>
        <ele>121.0</ele>
      </trkpt>
      <trkpt lat="43.956307" lon="10.943292">
        <time>1970-01-01T00:00:00+00:00</time>
        <ele>118.0</ele>
      </trkpt>
      <trkpt lat="43.956058" lon="10.943078">
        <time>1970-01-01T00:00:00+00:00</time>
        <ele>117.0</ele>
      </trkpt>
      <trkpt lat="43.955657" lon="10.942692">
        <time>1970-01-01T00:00:00+00:00</time>
        <ele>114.0</ele>
      </trkpt>
      <trkpt lat="43.955244" lon="10.942298">
        <time>1970-01-01T00:00:00+00:00</time>
        <ele>112.0</ele>
      </trkpt>
      <trkpt lat="43.955382" lon="10.941712">
        <time>1970-01-01T00:00:00+00:00</time>
        <ele>114.0</ele>
      </trkpt>
      <trkpt lat="43.955424" lon="10.941596">
        <time>1970-01-01T00:00:00+00:00</time>
        <ele>114.0</ele>
      </trkpt>
      <trkpt lat="43.955482" lon="10.941546">
        <time>1970-01-01T00:00:00+00:00</time>
        <ele>115.0</ele>
      </trkpt>
      <trkpt lat="43.955647" lon="10.941484">
        <time>1970-01-01T00:00:00+00:00</time>
        <ele>117.0</ele>
      </trkpt>
      <trkpt lat="43.955692" lon="10.941433">
        <time>1970-01-01T00:00:00+00:00</time>
        <ele>117.0</ele>
      </trkpt>
      <trkpt lat="43.955718" lon="10.941312">
        <time>1970-01-01T00:00:00+00:00</time>
        <ele>117.0</ele>
      </trkpt>
      <trkpt lat="43.955723" lon="10.940827">
        <time>1970-01-01T00:00:00+00:00</time>
        <ele>118.0</ele>
      </trkpt>
      <trkpt lat="43.955753" lon="10.940705">
        <time>1970-01-01T00:00:00+00:00</time>
        <ele>118.0</ele>
      </trkpt>
      <trkpt lat="43.956127" lon="10.940645">
        <time>1970-01-01T00:00:00+00:00</time>
        <ele>123.0</ele>
      </trkpt>
      <trkpt lat="43.956508" lon="10.940662">
        <time>1970-01-01T00:00:00+00:00</time>
        <ele>128.0</ele>
      </trkpt>
      <trkpt lat="43.956777" lon="10.940772">
        <time>1970-01-01T00:00:00+00:00</time>
        <ele>132.0</ele>
      </trkpt>
      <trkpt lat="43.957175" lon="10.941123">
        <time>1970-01-01T00:00:00+00:00</time>
        <ele>141.0</ele>
      </trkpt>
      <trkpt lat="43.957557" lon="10.941254">
        <time>1970-01-01T00:00:00+00:00</time>
        <ele>147.0</ele>
      </trkpt>
      <trkpt lat="43.958068" lon="10.941235">
        <time>1970-01-01T00:00:00+00:00</time>
        <ele>158.0</ele>
      </trkpt>
      <trkpt lat="43.958165" lon="10.940971">
        <time>1970-01-01T00:00:00+00:00</time>
        <ele>159.0</ele>
      </trkpt>
      <trkpt lat="43.958152" lon="10.94055">
        <time>1970-01-01T00:00:00+00:00</time>
        <ele>156.0</ele>
      </trkpt>
      <trkpt lat="43.958403" lon="10.940444">
        <time>1970-01-01T00:00:00+00:00</time>
        <ele>161.0</ele>
      </trkpt>
      <trkpt lat="43.958925" lon="10.940605">
        <time>1970-01-01T00:00:00+00:00</time>
        <ele>174.0</ele>
      </trkpt>
      <trkpt lat="43.959927" lon="10.940742">
        <time>1970-01-01T00:00:00+00:00</time>
        <ele>188.0</ele>
      </trkpt>
      <trkpt lat="43.959981" lon="10.94078">
        <time>1970-01-01T00:00:00+00:00</time>
        <ele>189.0</ele>
      </trkpt>
      <trkpt lat="43.959988" lon="10.940807">
        <time>1970-01-01T00:00:00+00:00</time>
        <ele>189.0</ele>
      </trkpt>
      <trkpt lat="43.96" lon="10.940857">
        <time>1970-01-01T00:00:00+00:00</time>
        <ele>190.0</ele>
      </trkpt>
      <trkpt lat="43.959884" lon="10.941636">
        <time>1970-01-01T00:00:00+00:00</time>
        <ele>197.0</ele>
      </trkpt>
      <trkpt lat="43.95986" lon="10.942107">
        <time>1970-01-01T00:00:00+00:00</time>
        <ele>198.0</ele>
      </trkpt>
      <trkpt lat="43.960072" lon="10.94217">
        <time>1970-01-01T00:00:00+00:00</time>
        <ele>201.0</ele>
      </trkpt>
      <trkpt lat="43.961131" lon="10.94172">
        <time>1970-01-01T00:00:00+00:00</time>
        <ele>220.0</ele>
      </trkpt>
      <trkpt lat="43.961504" lon="10.941416">
        <time>1970-01-01T00:00:00+00:00</time>
        <ele>229.0</ele>
      </trkpt>
      <trkpt lat="43.961961" lon="10.940843">
        <time>1970-01-01T00:00:00+00:00</time>
        <ele>236.0</ele>
      </trkpt>
      <trkpt lat="43.962457" lon="10.940325">
        <time>1970-01-01T00:00:00+00:00</time>
        <ele>240.0</ele>
      </trkpt>
      <trkpt lat="43.962701" lon="10.94022">
        <time>1970-01-01T00:00:00+00:00</time>
        <ele>243.0</ele>
      </trkpt>
      <trkpt lat="43.963409" lon="10.940656">
        <time>1970-01-01T00:00:00+00:00</time>
        <ele>263.0</ele>
      </trkpt>
      <trkpt lat="43.963672" lon="10.940555">
        <time>1970-01-01T00:00:00+00:00</time>
        <ele>267.0</ele>
      </trkpt>
      <trkpt lat="43.963882" lon="10.940174">
        <time>1970-01-01T00:00:00+00:00</time>
        <ele>270.0</ele>
      </trkpt>
      <trkpt lat="43.96423" lon="10.939296">
        <time>1970-01-01T00:00:00+00:00</time>
        <ele>270.0</ele>
      </trkpt>
      <trkpt lat="43.964274" lon="10.939215">
        <time>1970-01-01T00:00:00+00:00</time>
        <ele>270.0</ele>
      </trkpt>
      <trkpt lat="43.964556" lon="10.938901">
        <time>1970-01-01T00:00:00+00:00</time>
        <ele>274.0</ele>
      </trkpt>
      <trkpt lat="43.964647" lon="10.938822">
        <time>1970-01-01T00:00:00+00:00</time>
        <ele>276.0</ele>
      </trkpt>
      <trkpt lat="43.964708" lon="10.938749">
        <time>1970-01-01T00:00:00+00:00</time>
        <ele>276.0</ele>
      </trkpt>
      <trkpt lat="43.964776" lon="10.938628">
        <time>1970-01-01T00:00:00+00:00</time>
        <ele>276.0</ele>
      </trkpt>
      <trkpt lat="43.964857" lon="10.938346">
        <time>1970-01-01T00:00:00+00:00</time>
        <ele>277.0</ele>
      </trkpt>
      <trkpt lat="43.964921" lon="10.938025">
        <time>1970-01-01T00:00:00+00:00</time>
        <ele>276.0</ele>
      </trkpt>
      <trkpt lat="43.965062" lon="10.9377">
        <time>1970-01-01T00:00:00+00:00</time>
        <ele>278.0</ele>
      </trkpt>
      <trkpt lat="43.965182" lon="10.937473">
        <time>1970-01-01T00:00:00+00:00</time>
        <ele>279.0</ele>
      </trkpt>
      <trkpt lat="43.965213" lon="10.93726">
        <time>1970-01-01T00:00:00+00:00</time>
        <ele>279.0</ele>
      </trkpt>
      <trkpt lat="43.965515" lon="10.93675">
        <time>1970-01-01T00:00:00+00:00</time>
        <ele>282.0</ele>
      </trkpt>
      <trkpt lat="43.966351" lon="10.936021">
        <time>1970-01-01T00:00:00+00:00</time>
        <ele>290.0</ele>
      </trkpt>
      <trkpt lat="43.966425" lon="10.935983">
        <time>1970-01-01T00:00:00+00:00</time>
        <ele>290.0</ele>
      </trkpt>
      <trkpt lat="43.967217" lon="10.935772">
        <time>1970-01-01T00:00:00+00:00</time>
        <ele>294.0</ele>
      </trkpt>
      <trkpt lat="43.967611" lon="10.935559">
        <time>1970-01-01T00:00:00+00:00</time>
        <ele>294.0</ele>
      </trkpt>
      <trkpt lat="43.968232" lon="10.934988">
        <time>1970-01-01T00:00:00+00:00</time>
        <ele>301.0</ele>
      </trkpt>
      <trkpt lat="43.969507" lon="10.934637">
        <time>1970-01-01T00:00:00+00:00</time>
        <ele>308.0</ele>
      </trkpt>
      <trkpt lat="43.969953" lon="10.934717">
        <time>1970-01-01T00:00:00+00:00</time>
        <ele>308.0</ele>
      </trkpt>
      <trkpt lat="43.970162" lon="10.934487">
        <time>1970-01-01T00:00:00+00:00</time>
        <ele>306.0</ele>
      </trkpt>
      <trkpt lat="43.970481" lon="10.933847">
        <time>1970-01-01T00:00:00+00:00</time>
        <ele>311.0</ele>
      </trkpt>
      <trkpt lat="43.970589" lon="10.933757">
        <time>1970-01-01T00:00:00+00:00</time>
        <ele>314.0</ele>
      </trkpt>
      <trkpt lat="43.970702" lon="10.93374">
        <time>1970-01-01T00:00:00+00:00</time>
        <ele>316.0</ele>
      </trkpt>
      <trkpt lat="43.970723" lon="10.933557">
        <time>1970-01-01T00:00:00+00:00</time>
        <ele>316.0</ele>
      </trkpt>
      <trkpt lat="43.970765" lon="10.933388">
        <time>1970-01-01T00:00:00+00:00</time>
        <ele>317.0</ele>
      </trkpt>
      <trkpt lat="43.970797" lon="10.933179">
        <time>1970-01-01T00:00:00+00:00</time>
        <ele>316.0</ele>
      </trkpt>
      <trkpt lat="43.970819" lon="10.93293">
        <time>1970-01-01T00:00:00+00:00</time>
        <ele>315.0</ele>
      </trkpt>
      <trkpt lat="43.970807" lon="10.932807">
        <time>1970-01-01T00:00:00+00:00</time>
        <ele>315.0</ele>
      </trkpt>
      <trkpt lat="43.970761" lon="10.932509">
        <time>1970-01-01T00:00:00+00:00</time>
        <ele>314.0</ele>
      </trkpt>
      <trkpt lat="43.970698" lon="10.932295">
        <time>1970-01-01T00:00:00+00:00</time>
        <ele>314.0</ele>
      </trkpt>
      <trkpt lat="43.970296" lon="10.93117">
        <time>1970-01-01T00:00:00+00:00</time>
        <ele>308.0</ele>
      </trkpt>
      <trkpt lat="43.970238" lon="10.930923">
        <time>1970-01-01T00:00:00+00:00</time>
        <ele>308.0</ele>
      </trkpt>
    </trkseg>
  </trk>
</gpx>
